<?xml version="1.0" encoding="UTF-8" standalone="yes"?>
<gpx
 xmlns="http://www.topografix.com/GPX/1/1"
 creator="OziExplorer Version 3956f - http://www.oziexplorer.com"
 version="1.1"
 xmlns:xsi="http://www.w3.org/2001/XMLSchema-instance"
 xsi:schemaLocation="http://www.topografix.com/GPX/1/1 http://www.topografix.com/GPX/1/1/gpx.xsd">
<metadata>
 <time>2021-09-25T15:00:32Z</time>
 <bounds minlat="31.790040" minlon="35.023660" maxlat="31.823680" maxlon="35.140390"/>
</metadata>
<trk>
 <name>NeveILan,29km,700m</name>
 <desc>NeveILan,29km,700m</desc>
<trkseg>
<trkpt lat="31.8164200" lon="35.0241800">
<ele>292.000000</ele>
<time>2021-09-25T18:00:32.929Z</time>
</trkpt>
<trkpt lat="31.8164500" lon="35.0242000">
<ele>292.000000</ele>
<time>2021-09-25T18:00:32.929Z</time>
</trkpt>
<trkpt lat="31.8167900" lon="35.0245600">
<ele>293.429993</ele>
<time>2021-09-25T18:00:32.929Z</time>
</trkpt>
<trkpt lat="31.8168900" lon="35.0247300">
<ele>295.809998</ele>
<time>2021-09-25T18:00:32.929Z</time>
</trkpt>
<trkpt lat="31.8169300" lon="35.0248500">
<ele>295.630005</ele>
<time>2021-09-25T18:00:32.929Z</time>
</trkpt>
<trkpt lat="31.8172500" lon="35.0252300">
<ele>291.089996</ele>
<time>2021-09-25T18:00:32.930Z</time>
</trkpt>
<trkpt lat="31.8177000" lon="35.0260400">
<ele>280.070007</ele>
<time>2021-09-25T18:00:32.930Z</time>
</trkpt>
<trkpt lat="31.8177100" lon="35.0261800">
<ele>281.009979</ele>
<time>2021-09-25T18:00:32.930Z</time>
</trkpt>
<trkpt lat="31.8176700" lon="35.0262500">
<ele>281.220001</ele>
<time>2021-09-25T18:00:32.930Z</time>
</trkpt>
<trkpt lat="31.8176100" lon="35.0264500">
<ele>282.320007</ele>
<time>2021-09-25T18:00:32.930Z</time>
</trkpt>
<trkpt lat="31.8175900" lon="35.0268300">
<ele>283.970001</ele>
<time>2021-09-25T18:00:32.930Z</time>
</trkpt>
<trkpt lat="31.8175300" lon="35.0272500">
<ele>285.589996</ele>
<time>2021-09-25T18:00:32.930Z</time>
</trkpt>
<trkpt lat="31.8175300" lon="35.0281800">
<ele>291.300018</ele>
<time>2021-09-25T18:00:32.930Z</time>
</trkpt>
<trkpt lat="31.8175200" lon="35.0283900">
<ele>291.609985</ele>
<time>2021-09-25T18:00:32.930Z</time>
</trkpt>
<trkpt lat="31.8174400" lon="35.0288000">
<ele>294.140015</ele>
<time>2021-09-25T18:00:32.930Z</time>
</trkpt>
<trkpt lat="31.8173100" lon="35.0292900">
<ele>294.679993</ele>
<time>2021-09-25T18:00:32.930Z</time>
</trkpt>
<trkpt lat="31.8172600" lon="35.0296000">
<ele>294.510010</ele>
<time>2021-09-25T18:00:32.930Z</time>
</trkpt>
<trkpt lat="31.8172600" lon="35.0297500">
<ele>295.440002</ele>
<time>2021-09-25T18:00:32.930Z</time>
</trkpt>
<trkpt lat="31.8173100" lon="35.0300400">
<ele>301.429993</ele>
<time>2021-09-25T18:00:32.930Z</time>
</trkpt>
<trkpt lat="31.8174700" lon="35.0306900">
<ele>307.779999</ele>
<time>2021-09-25T18:00:32.930Z</time>
</trkpt>
<trkpt lat="31.8175100" lon="35.0307500">
<ele>308.269989</ele>
<time>2021-09-25T18:00:32.930Z</time>
</trkpt>
<trkpt lat="31.8175700" lon="35.0308900">
<ele>308.750000</ele>
<time>2021-09-25T18:00:32.930Z</time>
</trkpt>
<trkpt lat="31.8176000" lon="35.0309400">
<ele>308.589996</ele>
<time>2021-09-25T18:00:32.930Z</time>
</trkpt>
<trkpt lat="31.8176800" lon="35.0310700">
<ele>307.679993</ele>
<time>2021-09-25T18:00:32.930Z</time>
</trkpt>
<trkpt lat="31.8177500" lon="35.0311700">
<ele>306.750000</ele>
<time>2021-09-25T18:00:32.930Z</time>
</trkpt>
<trkpt lat="31.8177700" lon="35.0312300">
<ele>305.839996</ele>
<time>2021-09-25T18:00:32.930Z</time>
</trkpt>
<trkpt lat="31.8178200" lon="35.0313900">
<ele>304.670013</ele>
<time>2021-09-25T18:00:32.930Z</time>
</trkpt>
<trkpt lat="31.8179000" lon="35.0316400">
<ele>306.759979</ele>
<time>2021-09-25T18:00:32.930Z</time>
</trkpt>
<trkpt lat="31.8179300" lon="35.0317100">
<ele>307.190002</ele>
<time>2021-09-25T18:00:32.931Z</time>
</trkpt>
<trkpt lat="31.8180900" lon="35.0320900">
<ele>309.419983</ele>
<time>2021-09-25T18:00:32.931Z</time>
</trkpt>
<trkpt lat="31.8181400" lon="35.0323000">
<ele>310.500000</ele>
<time>2021-09-25T18:00:32.931Z</time>
</trkpt>
<trkpt lat="31.8181500" lon="35.0325200">
<ele>309.470001</ele>
<time>2021-09-25T18:00:32.931Z</time>
</trkpt>
<trkpt lat="31.8181600" lon="35.0325800">
<ele>309.949982</ele>
<time>2021-09-25T18:00:32.931Z</time>
</trkpt>
<trkpt lat="31.8182100" lon="35.0328400">
<ele>311.729980</ele>
<time>2021-09-25T18:00:32.931Z</time>
</trkpt>
<trkpt lat="31.8182500" lon="35.0329600">
<ele>312.839996</ele>
<time>2021-09-25T18:00:32.931Z</time>
</trkpt>
<trkpt lat="31.8183400" lon="35.0331000">
<ele>312.789978</ele>
<time>2021-09-25T18:00:32.931Z</time>
</trkpt>
<trkpt lat="31.8183800" lon="35.0331600">
<ele>312.959991</ele>
<time>2021-09-25T18:00:32.931Z</time>
</trkpt>
<trkpt lat="31.8185500" lon="35.0334300">
<ele>313.100006</ele>
<time>2021-09-25T18:00:32.931Z</time>
</trkpt>
<trkpt lat="31.8186000" lon="35.0335600">
<ele>312.440002</ele>
<time>2021-09-25T18:00:32.931Z</time>
</trkpt>
<trkpt lat="31.8186200" lon="35.0336500">
<ele>312.399994</ele>
<time>2021-09-25T18:00:32.931Z</time>
</trkpt>
<trkpt lat="31.8186600" lon="35.0338800">
<ele>313.609985</ele>
<time>2021-09-25T18:00:32.931Z</time>
</trkpt>
<trkpt lat="31.8186800" lon="35.0340600">
<ele>315.470001</ele>
<time>2021-09-25T18:00:32.931Z</time>
</trkpt>
<trkpt lat="31.8187000" lon="35.0342000">
<ele>316.839996</ele>
<time>2021-09-25T18:00:32.931Z</time>
</trkpt>
<trkpt lat="31.8188000" lon="35.0346000">
<ele>320.299988</ele>
<time>2021-09-25T18:00:32.931Z</time>
</trkpt>
<trkpt lat="31.8188200" lon="35.0346900">
<ele>321.049988</ele>
<time>2021-09-25T18:00:32.931Z</time>
</trkpt>
<trkpt lat="31.8187900" lon="35.0348400">
<ele>321.080017</ele>
<time>2021-09-25T18:00:32.931Z</time>
</trkpt>
<trkpt lat="31.8187300" lon="35.0350200">
<ele>320.980011</ele>
<time>2021-09-25T18:00:32.931Z</time>
</trkpt>
<trkpt lat="31.8187100" lon="35.0352200">
<ele>321.839996</ele>
<time>2021-09-25T18:00:32.931Z</time>
</trkpt>
<trkpt lat="31.8186600" lon="35.0355200">
<ele>323.829987</ele>
<time>2021-09-25T18:00:32.931Z</time>
</trkpt>
<trkpt lat="31.8187200" lon="35.0359100">
<ele>326.520020</ele>
<time>2021-09-25T18:00:32.931Z</time>
</trkpt>
<trkpt lat="31.8188000" lon="35.0361900">
<ele>331.940002</ele>
<time>2021-09-25T18:00:32.931Z</time>
</trkpt>
<trkpt lat="31.8188400" lon="35.0364700">
<ele>339.100006</ele>
<time>2021-09-25T18:00:32.932Z</time>
</trkpt>
<trkpt lat="31.8189200" lon="35.0362400">
<ele>338.380005</ele>
<time>2021-09-25T18:00:32.932Z</time>
</trkpt>
<trkpt lat="31.8189500" lon="35.0361900">
<ele>338.460022</ele>
<time>2021-09-25T18:00:32.932Z</time>
</trkpt>
<trkpt lat="31.8190500" lon="35.0358200">
<ele>336.519989</ele>
<time>2021-09-25T18:00:32.932Z</time>
</trkpt>
<trkpt lat="31.8191700" lon="35.0356200">
<ele>337.809998</ele>
<time>2021-09-25T18:00:32.932Z</time>
</trkpt>
<trkpt lat="31.8192200" lon="35.0354700">
<ele>339.419983</ele>
<time>2021-09-25T18:00:32.932Z</time>
</trkpt>
<trkpt lat="31.8192900" lon="35.0354100">
<ele>342.020020</ele>
<time>2021-09-25T18:00:32.932Z</time>
</trkpt>
<trkpt lat="31.8193500" lon="35.0354600">
<ele>343.829987</ele>
<time>2021-09-25T18:00:32.932Z</time>
</trkpt>
<trkpt lat="31.8194200" lon="35.0356900">
<ele>347.130005</ele>
<time>2021-09-25T18:00:32.932Z</time>
</trkpt>
<trkpt lat="31.8195100" lon="35.0358300">
<ele>351.339996</ele>
<time>2021-09-25T18:00:32.932Z</time>
</trkpt>
<trkpt lat="31.8195300" lon="35.0359000">
<ele>353.220001</ele>
<time>2021-09-25T18:00:32.932Z</time>
</trkpt>
<trkpt lat="31.8195200" lon="35.0363200">
<ele>361.140015</ele>
<time>2021-09-25T18:00:32.932Z</time>
</trkpt>
<trkpt lat="31.8195600" lon="35.0365400">
<ele>366.080017</ele>
<time>2021-09-25T18:00:32.932Z</time>
</trkpt>
<trkpt lat="31.8196400" lon="35.0367100">
<ele>369.049988</ele>
<time>2021-09-25T18:00:32.932Z</time>
</trkpt>
<trkpt lat="31.8197100" lon="35.0367800">
<ele>369.500000</ele>
<time>2021-09-25T18:00:32.932Z</time>
</trkpt>
<trkpt lat="31.8197700" lon="35.0368100">
<ele>370.089996</ele>
<time>2021-09-25T18:00:32.932Z</time>
</trkpt>
<trkpt lat="31.8199500" lon="35.0368700">
<ele>372.710022</ele>
<time>2021-09-25T18:00:32.932Z</time>
</trkpt>
<trkpt lat="31.8202500" lon="35.0369100">
<ele>375.549988</ele>
<time>2021-09-25T18:00:32.932Z</time>
</trkpt>
<trkpt lat="31.8202200" lon="35.0373500">
<ele>377.599976</ele>
<time>2021-09-25T18:00:32.932Z</time>
</trkpt>
<trkpt lat="31.8201800" lon="35.0374800">
<ele>378.480011</ele>
<time>2021-09-25T18:00:32.932Z</time>
</trkpt>
<trkpt lat="31.8201000" lon="35.0376700">
<ele>379.980011</ele>
<time>2021-09-25T18:00:32.932Z</time>
</trkpt>
<trkpt lat="31.8200400" lon="35.0378700">
<ele>381.759979</ele>
<time>2021-09-25T18:00:32.932Z</time>
</trkpt>
<trkpt lat="31.8199900" lon="35.0382800">
<ele>386.940002</ele>
<time>2021-09-25T18:00:32.932Z</time>
</trkpt>
<trkpt lat="31.8200000" lon="35.0384800">
<ele>389.580017</ele>
<time>2021-09-25T18:00:32.932Z</time>
</trkpt>
<trkpt lat="31.8199800" lon="35.0386300">
<ele>391.059998</ele>
<time>2021-09-25T18:00:32.932Z</time>
</trkpt>
<trkpt lat="31.8200000" lon="35.0387600">
<ele>392.069977</ele>
<time>2021-09-25T18:00:32.932Z</time>
</trkpt>
<trkpt lat="31.8201100" lon="35.0391800">
<ele>397.160004</ele>
<time>2021-09-25T18:00:32.932Z</time>
</trkpt>
<trkpt lat="31.8201100" lon="35.0392600">
<ele>398.250000</ele>
<time>2021-09-25T18:00:32.932Z</time>
</trkpt>
<trkpt lat="31.8200700" lon="35.0393600">
<ele>398.700012</ele>
<time>2021-09-25T18:00:32.932Z</time>
</trkpt>
<trkpt lat="31.8199500" lon="35.0395400">
<ele>399.029999</ele>
<time>2021-09-25T18:00:32.932Z</time>
</trkpt>
<trkpt lat="31.8199300" lon="35.0396400">
<ele>400.110016</ele>
<time>2021-09-25T18:00:32.932Z</time>
</trkpt>
<trkpt lat="31.8200200" lon="35.0398300">
<ele>403.000000</ele>
<time>2021-09-25T18:00:32.932Z</time>
</trkpt>
<trkpt lat="31.8201300" lon="35.0401800">
<ele>409.929993</ele>
<time>2021-09-25T18:00:32.932Z</time>
</trkpt>
<trkpt lat="31.8202700" lon="35.0404100">
<ele>415.310028</ele>
<time>2021-09-25T18:00:32.932Z</time>
</trkpt>
<trkpt lat="31.8203500" lon="35.0405900">
<ele>418.430023</ele>
<time>2021-09-25T18:00:32.932Z</time>
</trkpt>
<trkpt lat="31.8203700" lon="35.0407300">
<ele>419.489990</ele>
<time>2021-09-25T18:00:32.932Z</time>
</trkpt>
<trkpt lat="31.8203800" lon="35.0408600">
<ele>420.409973</ele>
<time>2021-09-25T18:00:32.932Z</time>
</trkpt>
<trkpt lat="31.8203000" lon="35.0411600">
<ele>419.410004</ele>
<time>2021-09-25T18:00:32.932Z</time>
</trkpt>
<trkpt lat="31.8202200" lon="35.0413600">
<ele>421.579987</ele>
<time>2021-09-25T18:00:32.932Z</time>
</trkpt>
<trkpt lat="31.8200100" lon="35.0417500">
<ele>429.459991</ele>
<time>2021-09-25T18:00:32.932Z</time>
</trkpt>
<trkpt lat="31.8198900" lon="35.0418700">
<ele>433.779999</ele>
<time>2021-09-25T18:00:32.932Z</time>
</trkpt>
<trkpt lat="31.8197100" lon="35.0419700">
<ele>436.580017</ele>
<time>2021-09-25T18:00:32.932Z</time>
</trkpt>
<trkpt lat="31.8196600" lon="35.0420200">
<ele>438.029999</ele>
<time>2021-09-25T18:00:32.932Z</time>
</trkpt>
<trkpt lat="31.8195500" lon="35.0423300">
<ele>441.680023</ele>
<time>2021-09-25T18:00:32.932Z</time>
</trkpt>
<trkpt lat="31.8194800" lon="35.0424100">
<ele>442.000000</ele>
<time>2021-09-25T18:00:32.933Z</time>
</trkpt>
<trkpt lat="31.8191200" lon="35.0427000">
<ele>448.610016</ele>
<time>2021-09-25T18:00:32.933Z</time>
</trkpt>
<trkpt lat="31.8190700" lon="35.0427500">
<ele>449.670013</ele>
<time>2021-09-25T18:00:32.933Z</time>
</trkpt>
<trkpt lat="31.8190300" lon="35.0428300">
<ele>451.220001</ele>
<time>2021-09-25T18:00:32.933Z</time>
</trkpt>
<trkpt lat="31.8190300" lon="35.0429100">
<ele>452.369995</ele>
<time>2021-09-25T18:00:32.933Z</time>
</trkpt>
<trkpt lat="31.8190600" lon="35.0430800">
<ele>454.630005</ele>
<time>2021-09-25T18:00:32.933Z</time>
</trkpt>
<trkpt lat="31.8191300" lon="35.0433500">
<ele>460.049988</ele>
<time>2021-09-25T18:00:32.933Z</time>
</trkpt>
<trkpt lat="31.8191300" lon="35.0434600">
<ele>461.240021</ele>
<time>2021-09-25T18:00:32.933Z</time>
</trkpt>
<trkpt lat="31.8190400" lon="35.0438300">
<ele>463.399994</ele>
<time>2021-09-25T18:00:32.933Z</time>
</trkpt>
<trkpt lat="31.8190100" lon="35.0440200">
<ele>463.510010</ele>
<time>2021-09-25T18:00:32.933Z</time>
</trkpt>
<trkpt lat="31.8190100" lon="35.0442700">
<ele>463.739990</ele>
<time>2021-09-25T18:00:32.933Z</time>
</trkpt>
<trkpt lat="31.8189300" lon="35.0446000">
<ele>462.109985</ele>
<time>2021-09-25T18:00:32.933Z</time>
</trkpt>
<trkpt lat="31.8189300" lon="35.0446800">
<ele>461.869995</ele>
<time>2021-09-25T18:00:32.933Z</time>
</trkpt>
<trkpt lat="31.8189800" lon="35.0449300">
<ele>464.639984</ele>
<time>2021-09-25T18:00:32.933Z</time>
</trkpt>
<trkpt lat="31.8189800" lon="35.0451000">
<ele>465.910004</ele>
<time>2021-09-25T18:00:32.933Z</time>
</trkpt>
<trkpt lat="31.8189400" lon="35.0452200">
<ele>466.169983</ele>
<time>2021-09-25T18:00:32.933Z</time>
</trkpt>
<trkpt lat="31.8188200" lon="35.0454300">
<ele>465.420013</ele>
<time>2021-09-25T18:00:32.933Z</time>
</trkpt>
<trkpt lat="31.8187900" lon="35.0455500">
<ele>465.619995</ele>
<time>2021-09-25T18:00:32.933Z</time>
</trkpt>
<trkpt lat="31.8187800" lon="35.0458500">
<ele>463.819977</ele>
<time>2021-09-25T18:00:32.933Z</time>
</trkpt>
<trkpt lat="31.8188300" lon="35.0461600">
<ele>464.779999</ele>
<time>2021-09-25T18:00:32.933Z</time>
</trkpt>
<trkpt lat="31.8188000" lon="35.0462700">
<ele>465.209991</ele>
<time>2021-09-25T18:00:32.933Z</time>
</trkpt>
<trkpt lat="31.8187600" lon="35.0463500">
<ele>464.989990</ele>
<time>2021-09-25T18:00:32.933Z</time>
</trkpt>
<trkpt lat="31.8186500" lon="35.0465200">
<ele>462.970001</ele>
<time>2021-09-25T18:00:32.933Z</time>
</trkpt>
<trkpt lat="31.8185600" lon="35.0467900">
<ele>462.600006</ele>
<time>2021-09-25T18:00:32.933Z</time>
</trkpt>
<trkpt lat="31.8183300" lon="35.0473200">
<ele>467.979980</ele>
<time>2021-09-25T18:00:32.933Z</time>
</trkpt>
<trkpt lat="31.8181900" lon="35.0477600">
<ele>470.679993</ele>
<time>2021-09-25T18:00:32.933Z</time>
</trkpt>
<trkpt lat="31.8180000" lon="35.0485800">
<ele>480.420013</ele>
<time>2021-09-25T18:00:32.934Z</time>
</trkpt>
<trkpt lat="31.8178200" lon="35.0490900">
<ele>484.740021</ele>
<time>2021-09-25T18:00:32.934Z</time>
</trkpt>
<trkpt lat="31.8175800" lon="35.0500300">
<ele>489.370026</ele>
<time>2021-09-25T18:00:32.934Z</time>
</trkpt>
<trkpt lat="31.8175500" lon="35.0502400">
<ele>490.449982</ele>
<time>2021-09-25T18:00:32.934Z</time>
</trkpt>
<trkpt lat="31.8175700" lon="35.0506600">
<ele>495.449982</ele>
<time>2021-09-25T18:00:32.934Z</time>
</trkpt>
<trkpt lat="31.8174100" lon="35.0512200">
<ele>498.660004</ele>
<time>2021-09-25T18:00:32.934Z</time>
</trkpt>
<trkpt lat="31.8173800" lon="35.0512900">
<ele>499.349976</ele>
<time>2021-09-25T18:00:32.934Z</time>
</trkpt>
<trkpt lat="31.8172500" lon="35.0515600">
<ele>501.950012</ele>
<time>2021-09-25T18:00:32.934Z</time>
</trkpt>
<trkpt lat="31.8171000" lon="35.0518000">
<ele>504.959991</ele>
<time>2021-09-25T18:00:32.934Z</time>
</trkpt>
<trkpt lat="31.8169600" lon="35.0519900">
<ele>505.450012</ele>
<time>2021-09-25T18:00:32.934Z</time>
</trkpt>
<trkpt lat="31.8167000" lon="35.0525900">
<ele>514.729980</ele>
<time>2021-09-25T18:00:32.934Z</time>
</trkpt>
<trkpt lat="31.8166000" lon="35.0528700">
<ele>518.570007</ele>
<time>2021-09-25T18:00:32.934Z</time>
</trkpt>
<trkpt lat="31.8164500" lon="35.0531600">
<ele>522.830017</ele>
<time>2021-09-25T18:00:32.934Z</time>
</trkpt>
<trkpt lat="31.8164300" lon="35.0532800">
<ele>524.160034</ele>
<time>2021-09-25T18:00:32.934Z</time>
</trkpt>
<trkpt lat="31.8164400" lon="35.0534900">
<ele>526.470032</ele>
<time>2021-09-25T18:00:32.934Z</time>
</trkpt>
<trkpt lat="31.8164200" lon="35.0535700">
<ele>527.799988</ele>
<time>2021-09-25T18:00:32.934Z</time>
</trkpt>
<trkpt lat="31.8162300" lon="35.0539300">
<ele>527.679993</ele>
<time>2021-09-25T18:00:32.934Z</time>
</trkpt>
<trkpt lat="31.8161200" lon="35.0541000">
<ele>527.309998</ele>
<time>2021-09-25T18:00:32.934Z</time>
</trkpt>
<trkpt lat="31.8160100" lon="35.0544100">
<ele>525.719971</ele>
<time>2021-09-25T18:00:32.934Z</time>
</trkpt>
<trkpt lat="31.8159600" lon="35.0544700">
<ele>524.730042</ele>
<time>2021-09-25T18:00:32.934Z</time>
</trkpt>
<trkpt lat="31.8159300" lon="35.0544900">
<ele>524.229980</ele>
<time>2021-09-25T18:00:32.934Z</time>
</trkpt>
<trkpt lat="31.8158200" lon="35.0544900">
<ele>522.739990</ele>
<time>2021-09-25T18:00:32.934Z</time>
</trkpt>
<trkpt lat="31.8155500" lon="35.0543600">
<ele>521.269958</ele>
<time>2021-09-25T18:00:32.934Z</time>
</trkpt>
<trkpt lat="31.8154800" lon="35.0543900">
<ele>520.709961</ele>
<time>2021-09-25T18:00:32.934Z</time>
</trkpt>
<trkpt lat="31.8154400" lon="35.0544600">
<ele>520.109985</ele>
<time>2021-09-25T18:00:32.934Z</time>
</trkpt>
<trkpt lat="31.8154300" lon="35.0545800">
<ele>519.609985</ele>
<time>2021-09-25T18:00:32.934Z</time>
</trkpt>
<trkpt lat="31.8154500" lon="35.0547100">
<ele>519.280029</ele>
<time>2021-09-25T18:00:32.935Z</time>
</trkpt>
<trkpt lat="31.8156100" lon="35.0550300">
<ele>517.150024</ele>
<time>2021-09-25T18:00:32.935Z</time>
</trkpt>
<trkpt lat="31.8157300" lon="35.0553400">
<ele>515.119995</ele>
<time>2021-09-25T18:00:32.935Z</time>
</trkpt>
<trkpt lat="31.8157600" lon="35.0554700">
<ele>514.029968</ele>
<time>2021-09-25T18:00:32.935Z</time>
</trkpt>
<trkpt lat="31.8157600" lon="35.0557200">
<ele>511.609985</ele>
<time>2021-09-25T18:00:32.935Z</time>
</trkpt>
<trkpt lat="31.8158000" lon="35.0561400">
<ele>505.829987</ele>
<time>2021-09-25T18:00:32.935Z</time>
</trkpt>
<trkpt lat="31.8157800" lon="35.0563100">
<ele>504.319977</ele>
<time>2021-09-25T18:00:32.935Z</time>
</trkpt>
<trkpt lat="31.8157100" lon="35.0566000">
<ele>504.750000</ele>
<time>2021-09-25T18:00:32.935Z</time>
</trkpt>
<trkpt lat="31.8157000" lon="35.0567700">
<ele>504.380005</ele>
<time>2021-09-25T18:00:32.935Z</time>
</trkpt>
<trkpt lat="31.8157300" lon="35.0571400">
<ele>500.849976</ele>
<time>2021-09-25T18:00:32.935Z</time>
</trkpt>
<trkpt lat="31.8158000" lon="35.0574100">
<ele>499.760010</ele>
<time>2021-09-25T18:00:32.935Z</time>
</trkpt>
<trkpt lat="31.8158300" lon="35.0576800">
<ele>499.970001</ele>
<time>2021-09-25T18:00:32.935Z</time>
</trkpt>
<trkpt lat="31.8158100" lon="35.0578100">
<ele>499.929993</ele>
<time>2021-09-25T18:00:32.935Z</time>
</trkpt>
<trkpt lat="31.8157100" lon="35.0579200">
<ele>499.170013</ele>
<time>2021-09-25T18:00:32.935Z</time>
</trkpt>
<trkpt lat="31.8156500" lon="35.0580700">
<ele>498.409973</ele>
<time>2021-09-25T18:00:32.935Z</time>
</trkpt>
<trkpt lat="31.8153000" lon="35.0582900">
<ele>499.320007</ele>
<time>2021-09-25T18:00:32.935Z</time>
</trkpt>
<trkpt lat="31.8152200" lon="35.0583800">
<ele>499.770020</ele>
<time>2021-09-25T18:00:32.935Z</time>
</trkpt>
<trkpt lat="31.8151700" lon="35.0584900">
<ele>500.660004</ele>
<time>2021-09-25T18:00:32.935Z</time>
</trkpt>
<trkpt lat="31.8151400" lon="35.0586500">
<ele>502.510010</ele>
<time>2021-09-25T18:00:32.935Z</time>
</trkpt>
<trkpt lat="31.8151400" lon="35.0588300">
<ele>504.780029</ele>
<time>2021-09-25T18:00:32.935Z</time>
</trkpt>
<trkpt lat="31.8151900" lon="35.0598000">
<ele>515.679993</ele>
<time>2021-09-25T18:00:32.935Z</time>
</trkpt>
<trkpt lat="31.8151700" lon="35.0599300">
<ele>516.859985</ele>
<time>2021-09-25T18:00:32.936Z</time>
</trkpt>
<trkpt lat="31.8151000" lon="35.0601200">
<ele>515.760010</ele>
<time>2021-09-25T18:00:32.936Z</time>
</trkpt>
<trkpt lat="31.8150200" lon="35.0602500">
<ele>512.830017</ele>
<time>2021-09-25T18:00:32.936Z</time>
</trkpt>
<trkpt lat="31.8149400" lon="35.0603400">
<ele>510.300018</ele>
<time>2021-09-25T18:00:32.936Z</time>
</trkpt>
<trkpt lat="31.8144100" lon="35.0606100">
<ele>506.779999</ele>
<time>2021-09-25T18:00:32.936Z</time>
</trkpt>
<trkpt lat="31.8143000" lon="35.0607200">
<ele>508.370026</ele>
<time>2021-09-25T18:00:32.936Z</time>
</trkpt>
<trkpt lat="31.8142100" lon="35.0608500">
<ele>510.300018</ele>
<time>2021-09-25T18:00:32.936Z</time>
</trkpt>
<trkpt lat="31.8136200" lon="35.0619800">
<ele>523.989990</ele>
<time>2021-09-25T18:00:32.936Z</time>
</trkpt>
<trkpt lat="31.8133200" lon="35.0625000">
<ele>523.470032</ele>
<time>2021-09-25T18:00:32.936Z</time>
</trkpt>
<trkpt lat="31.8132200" lon="35.0627300">
<ele>524.510010</ele>
<time>2021-09-25T18:00:32.936Z</time>
</trkpt>
<trkpt lat="31.8131100" lon="35.0630900">
<ele>528.940002</ele>
<time>2021-09-25T18:00:32.936Z</time>
</trkpt>
<trkpt lat="31.8130100" lon="35.0635800">
<ele>536.070007</ele>
<time>2021-09-25T18:00:32.936Z</time>
</trkpt>
<trkpt lat="31.8129700" lon="35.0636900">
<ele>537.640015</ele>
<time>2021-09-25T18:00:32.936Z</time>
</trkpt>
<trkpt lat="31.8129100" lon="35.0637400">
<ele>537.359985</ele>
<time>2021-09-25T18:00:32.936Z</time>
</trkpt>
<trkpt lat="31.8128400" lon="35.0637700">
<ele>536.440002</ele>
<time>2021-09-25T18:00:32.936Z</time>
</trkpt>
<trkpt lat="31.8124500" lon="35.0637800">
<ele>530.649963</ele>
<time>2021-09-25T18:00:32.936Z</time>
</trkpt>
<trkpt lat="31.8123400" lon="35.0638000">
<ele>530.270020</ele>
<time>2021-09-25T18:00:32.936Z</time>
</trkpt>
<trkpt lat="31.8121700" lon="35.0638800">
<ele>530.970032</ele>
<time>2021-09-25T18:00:32.936Z</time>
</trkpt>
<trkpt lat="31.8119400" lon="35.0640100">
<ele>530.630005</ele>
<time>2021-09-25T18:00:32.936Z</time>
</trkpt>
<trkpt lat="31.8118600" lon="35.0640800">
<ele>532.659973</ele>
<time>2021-09-25T18:00:32.936Z</time>
</trkpt>
<trkpt lat="31.8117200" lon="35.0642200">
<ele>537.270020</ele>
<time>2021-09-25T18:00:32.936Z</time>
</trkpt>
<trkpt lat="31.8115800" lon="35.0644100">
<ele>540.619995</ele>
<time>2021-09-25T18:00:32.936Z</time>
</trkpt>
<trkpt lat="31.8112000" lon="35.0651400">
<ele>552.970032</ele>
<time>2021-09-25T18:00:32.937Z</time>
</trkpt>
<trkpt lat="31.8109200" lon="35.0656200">
<ele>559.369995</ele>
<time>2021-09-25T18:00:32.937Z</time>
</trkpt>
<trkpt lat="31.8107400" lon="35.0659900">
<ele>561.630005</ele>
<time>2021-09-25T18:00:32.937Z</time>
</trkpt>
<trkpt lat="31.8100300" lon="35.0677500">
<ele>576.470032</ele>
<time>2021-09-25T18:00:32.937Z</time>
</trkpt>
<trkpt lat="31.8094300" lon="35.0689700">
<ele>582.919983</ele>
<time>2021-09-25T18:00:32.937Z</time>
</trkpt>
<trkpt lat="31.8092700" lon="35.0693500">
<ele>586.619995</ele>
<time>2021-09-25T18:00:32.937Z</time>
</trkpt>
<trkpt lat="31.8091300" lon="35.0698700">
<ele>591.160034</ele>
<time>2021-09-25T18:00:32.937Z</time>
</trkpt>
<trkpt lat="31.8090900" lon="35.0702500">
<ele>595.369995</ele>
<time>2021-09-25T18:00:32.937Z</time>
</trkpt>
<trkpt lat="31.8091200" lon="35.0705900">
<ele>598.340027</ele>
<time>2021-09-25T18:00:32.937Z</time>
</trkpt>
<trkpt lat="31.8092200" lon="35.0712900">
<ele>601.989990</ele>
<time>2021-09-25T18:00:32.937Z</time>
</trkpt>
<trkpt lat="31.8092200" lon="35.0712900">
<ele>601.989990</ele>
<time>2021-09-25T18:00:32.937Z</time>
</trkpt>
<trkpt lat="31.8092200" lon="35.0712900">
<ele>601.989990</ele>
<time>2021-09-25T18:00:32.937Z</time>
</trkpt>
<trkpt lat="31.8092300" lon="35.0713800">
<ele>602.290039</ele>
<time>2021-09-25T18:00:32.937Z</time>
</trkpt>
<trkpt lat="31.8093100" lon="35.0717100">
<ele>603.739990</ele>
<time>2021-09-25T18:00:32.937Z</time>
</trkpt>
<trkpt lat="31.8094200" lon="35.0719800">
<ele>603.890015</ele>
<time>2021-09-25T18:00:32.937Z</time>
</trkpt>
<trkpt lat="31.8097200" lon="35.0726100">
<ele>605.559998</ele>
<time>2021-09-25T18:00:32.937Z</time>
</trkpt>
<trkpt lat="31.8098700" lon="35.0729000">
<ele>605.619995</ele>
<time>2021-09-25T18:00:32.937Z</time>
</trkpt>
<trkpt lat="31.8100300" lon="35.0734100">
<ele>606.599976</ele>
<time>2021-09-25T18:00:32.937Z</time>
</trkpt>
<trkpt lat="31.8101100" lon="35.0736500">
<ele>608.299988</ele>
<time>2021-09-25T18:00:32.937Z</time>
</trkpt>
<trkpt lat="31.8100400" lon="35.0737900">
<ele>608.440002</ele>
<time>2021-09-25T18:00:32.937Z</time>
</trkpt>
<trkpt lat="31.8099200" lon="35.0741000">
<ele>609.469971</ele>
<time>2021-09-25T18:00:32.937Z</time>
</trkpt>
<trkpt lat="31.8097100" lon="35.0745100">
<ele>613.760010</ele>
<time>2021-09-25T18:00:32.937Z</time>
</trkpt>
<trkpt lat="31.8096700" lon="35.0748100">
<ele>616.609985</ele>
<time>2021-09-25T18:00:32.937Z</time>
</trkpt>
<trkpt lat="31.8096400" lon="35.0750100">
<ele>617.799988</ele>
<time>2021-09-25T18:00:32.937Z</time>
</trkpt>
<trkpt lat="31.8096200" lon="35.0752000">
<ele>618.659973</ele>
<time>2021-09-25T18:00:32.937Z</time>
</trkpt>
<trkpt lat="31.8095800" lon="35.0753800">
<ele>620.119995</ele>
<time>2021-09-25T18:00:32.938Z</time>
</trkpt>
<trkpt lat="31.8095600" lon="35.0764000">
<ele>627.380005</ele>
<time>2021-09-25T18:00:32.938Z</time>
</trkpt>
<trkpt lat="31.8098300" lon="35.0758600">
<ele>617.950012</ele>
<time>2021-09-25T18:00:32.938Z</time>
</trkpt>
<trkpt lat="31.8100300" lon="35.0760300">
<ele>615.880005</ele>
<time>2021-09-25T18:00:32.938Z</time>
</trkpt>
<trkpt lat="31.8101600" lon="35.0763200">
<ele>616.239990</ele>
<time>2021-09-25T18:00:32.938Z</time>
</trkpt>
<trkpt lat="31.8102000" lon="35.0763600">
<ele>615.959961</ele>
<time>2021-09-25T18:00:32.938Z</time>
</trkpt>
<trkpt lat="31.8102700" lon="35.0764500">
<ele>615.780029</ele>
<time>2021-09-25T18:00:32.938Z</time>
</trkpt>
<trkpt lat="31.8103300" lon="35.0765700">
<ele>616.150024</ele>
<time>2021-09-25T18:00:32.938Z</time>
</trkpt>
<trkpt lat="31.8103300" lon="35.0771000">
<ele>622.460022</ele>
<time>2021-09-25T18:00:32.938Z</time>
</trkpt>
<trkpt lat="31.8105300" lon="35.0775200">
<ele>631.210022</ele>
<time>2021-09-25T18:00:32.938Z</time>
</trkpt>
<trkpt lat="31.8111600" lon="35.0780600">
<ele>622.479980</ele>
<time>2021-09-25T18:00:32.938Z</time>
</trkpt>
<trkpt lat="31.8113300" lon="35.0782100">
<ele>619.130005</ele>
<time>2021-09-25T18:00:32.939Z</time>
</trkpt>
<trkpt lat="31.8115300" lon="35.0784500">
<ele>617.209961</ele>
<time>2021-09-25T18:00:32.939Z</time>
</trkpt>
<trkpt lat="31.8117000" lon="35.0787600">
<ele>617.489990</ele>
<time>2021-09-25T18:00:32.939Z</time>
</trkpt>
<trkpt lat="31.8117600" lon="35.0787300">
<ele>615.839966</ele>
<time>2021-09-25T18:00:32.939Z</time>
</trkpt>
<trkpt lat="31.8117800" lon="35.0785700">
<ele>612.989990</ele>
<time>2021-09-25T18:00:32.939Z</time>
</trkpt>
<trkpt lat="31.8118700" lon="35.0785600">
<ele>610.789978</ele>
<time>2021-09-25T18:00:32.939Z</time>
</trkpt>
<trkpt lat="31.8122100" lon="35.0789400">
<ele>608.669983</ele>
<time>2021-09-25T18:00:32.939Z</time>
</trkpt>
<trkpt lat="31.8126700" lon="35.0793500">
<ele>602.489990</ele>
<time>2021-09-25T18:00:32.939Z</time>
</trkpt>
<trkpt lat="31.8127100" lon="35.0795100">
<ele>601.369995</ele>
<time>2021-09-25T18:00:32.939Z</time>
</trkpt>
<trkpt lat="31.8125500" lon="35.0798800">
<ele>596.520020</ele>
<time>2021-09-25T18:00:32.939Z</time>
</trkpt>
<trkpt lat="31.8126100" lon="35.0800000">
<ele>593.419983</ele>
<time>2021-09-25T18:00:32.939Z</time>
</trkpt>
<trkpt lat="31.8129100" lon="35.0800900">
<ele>587.799988</ele>
<time>2021-09-25T18:00:32.939Z</time>
</trkpt>
<trkpt lat="31.8132700" lon="35.0800300">
<ele>583.739990</ele>
<time>2021-09-25T18:00:32.939Z</time>
</trkpt>
<trkpt lat="31.8133000" lon="35.0801200">
<ele>582.149963</ele>
<time>2021-09-25T18:00:32.939Z</time>
</trkpt>
<trkpt lat="31.8129000" lon="35.0804800">
<ele>579.380005</ele>
<time>2021-09-25T18:00:32.939Z</time>
</trkpt>
<trkpt lat="31.8129700" lon="35.0805800">
<ele>576.900024</ele>
<time>2021-09-25T18:00:32.939Z</time>
</trkpt>
<trkpt lat="31.8135000" lon="35.0805600">
<ele>570.690002</ele>
<time>2021-09-25T18:00:32.939Z</time>
</trkpt>
<trkpt lat="31.8136400" lon="35.0806400">
<ele>565.549988</ele>
<time>2021-09-25T18:00:32.939Z</time>
</trkpt>
<trkpt lat="31.8137400" lon="35.0806200">
<ele>563.820007</ele>
<time>2021-09-25T18:00:32.939Z</time>
</trkpt>
<trkpt lat="31.8143800" lon="35.0803000">
<ele>557.109985</ele>
<time>2021-09-25T18:00:32.939Z</time>
</trkpt>
<trkpt lat="31.8147800" lon="35.0802100">
<ele>552.010010</ele>
<time>2021-09-25T18:00:32.940Z</time>
</trkpt>
<trkpt lat="31.8149100" lon="35.0801300">
<ele>550.849976</ele>
<time>2021-09-25T18:00:32.940Z</time>
</trkpt>
<trkpt lat="31.8151800" lon="35.0796200">
<ele>544.400024</ele>
<time>2021-09-25T18:00:32.940Z</time>
</trkpt>
<trkpt lat="31.8154200" lon="35.0793400">
<ele>537.000000</ele>
<time>2021-09-25T18:00:32.940Z</time>
</trkpt>
<trkpt lat="31.8154800" lon="35.0793600">
<ele>536.119995</ele>
<time>2021-09-25T18:00:32.940Z</time>
</trkpt>
<trkpt lat="31.8155100" lon="35.0794600">
<ele>536.640015</ele>
<time>2021-09-25T18:00:32.940Z</time>
</trkpt>
<trkpt lat="31.8155500" lon="35.0794500">
<ele>536.059998</ele>
<time>2021-09-25T18:00:32.940Z</time>
</trkpt>
<trkpt lat="31.8156900" lon="35.0792000">
<ele>529.829956</ele>
<time>2021-09-25T18:00:32.940Z</time>
</trkpt>
<trkpt lat="31.8159700" lon="35.0789400">
<ele>522.309998</ele>
<time>2021-09-25T18:00:32.940Z</time>
</trkpt>
<trkpt lat="31.8163100" lon="35.0780000">
<ele>509.639984</ele>
<time>2021-09-25T18:00:32.940Z</time>
</trkpt>
<trkpt lat="31.8164100" lon="35.0774300">
<ele>508.670013</ele>
<time>2021-09-25T18:00:32.940Z</time>
</trkpt>
<trkpt lat="31.8164600" lon="35.0774200">
<ele>506.759979</ele>
<time>2021-09-25T18:00:32.940Z</time>
</trkpt>
<trkpt lat="31.8164900" lon="35.0775300">
<ele>504.709991</ele>
<time>2021-09-25T18:00:32.940Z</time>
</trkpt>
<trkpt lat="31.8165800" lon="35.0786700">
<ele>497.910004</ele>
<time>2021-09-25T18:00:32.940Z</time>
</trkpt>
<trkpt lat="31.8165500" lon="35.0788700">
<ele>498.919983</ele>
<time>2021-09-25T18:00:32.940Z</time>
</trkpt>
<trkpt lat="31.8163900" lon="35.0794900">
<ele>502.129974</ele>
<time>2021-09-25T18:00:32.940Z</time>
</trkpt>
<trkpt lat="31.8163400" lon="35.0799400">
<ele>504.869995</ele>
<time>2021-09-25T18:00:32.940Z</time>
</trkpt>
<trkpt lat="31.8161800" lon="35.0804600">
<ele>507.009979</ele>
<time>2021-09-25T18:00:32.940Z</time>
</trkpt>
<trkpt lat="31.8160600" lon="35.0811100">
<ele>501.559998</ele>
<time>2021-09-25T18:00:32.940Z</time>
</trkpt>
<trkpt lat="31.8157800" lon="35.0817400">
<ele>498.480011</ele>
<time>2021-09-25T18:00:32.940Z</time>
</trkpt>
<trkpt lat="31.8157200" lon="35.0820900">
<ele>495.339996</ele>
<time>2021-09-25T18:00:32.941Z</time>
</trkpt>
<trkpt lat="31.8156900" lon="35.0822000">
<ele>494.529999</ele>
<time>2021-09-25T18:00:32.941Z</time>
</trkpt>
<trkpt lat="31.8158100" lon="35.0822300">
<ele>495.830017</ele>
<time>2021-09-25T18:00:32.941Z</time>
</trkpt>
<trkpt lat="31.8158400" lon="35.0822300">
<ele>496.229980</ele>
<time>2021-09-25T18:00:32.941Z</time>
</trkpt>
<trkpt lat="31.8159100" lon="35.0822100">
<ele>497.710022</ele>
<time>2021-09-25T18:00:32.941Z</time>
</trkpt>
<trkpt lat="31.8162500" lon="35.0820600">
<ele>503.119995</ele>
<time>2021-09-25T18:00:32.941Z</time>
</trkpt>
<trkpt lat="31.8163400" lon="35.0820000">
<ele>503.840027</ele>
<time>2021-09-25T18:00:32.941Z</time>
</trkpt>
<trkpt lat="31.8165600" lon="35.0817800">
<ele>509.749969</ele>
<time>2021-09-25T18:00:32.941Z</time>
</trkpt>
<trkpt lat="31.8167900" lon="35.0815200">
<ele>516.440002</ele>
<time>2021-09-25T18:00:32.941Z</time>
</trkpt>
<trkpt lat="31.8169900" lon="35.0812200">
<ele>519.720032</ele>
<time>2021-09-25T18:00:32.941Z</time>
</trkpt>
<trkpt lat="31.8170500" lon="35.0811700">
<ele>521.140015</ele>
<time>2021-09-25T18:00:32.941Z</time>
</trkpt>
<trkpt lat="31.8170800" lon="35.0811700">
<ele>522.130005</ele>
<time>2021-09-25T18:00:32.941Z</time>
</trkpt>
<trkpt lat="31.8170900" lon="35.0812500">
<ele>523.479980</ele>
<time>2021-09-25T18:00:32.941Z</time>
</trkpt>
<trkpt lat="31.8169500" lon="35.0816900">
<ele>523.390015</ele>
<time>2021-09-25T18:00:32.942Z</time>
</trkpt>
<trkpt lat="31.8168100" lon="35.0824300">
<ele>529.729980</ele>
<time>2021-09-25T18:00:32.942Z</time>
</trkpt>
<trkpt lat="31.8167700" lon="35.0827300">
<ele>534.599976</ele>
<time>2021-09-25T18:00:32.942Z</time>
</trkpt>
<trkpt lat="31.8167800" lon="35.0830200">
<ele>537.979980</ele>
<time>2021-09-25T18:00:32.942Z</time>
</trkpt>
<trkpt lat="31.8168700" lon="35.0835600">
<ele>541.609985</ele>
<time>2021-09-25T18:00:32.942Z</time>
</trkpt>
<trkpt lat="31.8168800" lon="35.0838600">
<ele>543.220032</ele>
<time>2021-09-25T18:00:32.942Z</time>
</trkpt>
<trkpt lat="31.8168400" lon="35.0840700">
<ele>544.320007</ele>
<time>2021-09-25T18:00:32.942Z</time>
</trkpt>
<trkpt lat="31.8165700" lon="35.0850800">
<ele>552.739990</ele>
<time>2021-09-25T18:00:32.942Z</time>
</trkpt>
<trkpt lat="31.8165200" lon="35.0854600">
<ele>558.979980</ele>
<time>2021-09-25T18:00:32.942Z</time>
</trkpt>
<trkpt lat="31.8164800" lon="35.0859200">
<ele>563.690002</ele>
<time>2021-09-25T18:00:32.942Z</time>
</trkpt>
<trkpt lat="31.8164800" lon="35.0876600">
<ele>574.479980</ele>
<time>2021-09-25T18:00:32.942Z</time>
</trkpt>
<trkpt lat="31.8164400" lon="35.0887200">
<ele>585.820007</ele>
<time>2021-09-25T18:00:32.942Z</time>
</trkpt>
<trkpt lat="31.8164500" lon="35.0892700">
<ele>593.099976</ele>
<time>2021-09-25T18:00:32.942Z</time>
</trkpt>
<trkpt lat="31.8164700" lon="35.0895700">
<ele>596.850037</ele>
<time>2021-09-25T18:00:32.942Z</time>
</trkpt>
<trkpt lat="31.8165100" lon="35.0897300">
<ele>599.510010</ele>
<time>2021-09-25T18:00:32.942Z</time>
</trkpt>
<trkpt lat="31.8165800" lon="35.0899300">
<ele>601.460022</ele>
<time>2021-09-25T18:00:32.942Z</time>
</trkpt>
<trkpt lat="31.8167400" lon="35.0902600">
<ele>604.770020</ele>
<time>2021-09-25T18:00:32.942Z</time>
</trkpt>
<trkpt lat="31.8170100" lon="35.0906600">
<ele>604.650024</ele>
<time>2021-09-25T18:00:32.943Z</time>
</trkpt>
<trkpt lat="31.8170800" lon="35.0908100">
<ele>604.010010</ele>
<time>2021-09-25T18:00:32.943Z</time>
</trkpt>
<trkpt lat="31.8171600" lon="35.0910000">
<ele>605.519958</ele>
<time>2021-09-25T18:00:32.943Z</time>
</trkpt>
<trkpt lat="31.8171700" lon="35.0910800">
<ele>605.590027</ele>
<time>2021-09-25T18:00:32.943Z</time>
</trkpt>
<trkpt lat="31.8171800" lon="35.0912100">
<ele>607.210022</ele>
<time>2021-09-25T18:00:32.943Z</time>
</trkpt>
<trkpt lat="31.8171600" lon="35.0916300">
<ele>614.219971</ele>
<time>2021-09-25T18:00:32.943Z</time>
</trkpt>
<trkpt lat="31.8170900" lon="35.0925200">
<ele>621.409973</ele>
<time>2021-09-25T18:00:32.943Z</time>
</trkpt>
<trkpt lat="31.8170500" lon="35.0931500">
<ele>625.480042</ele>
<time>2021-09-25T18:00:32.943Z</time>
</trkpt>
<trkpt lat="31.8170500" lon="35.0935800">
<ele>627.899963</ele>
<time>2021-09-25T18:00:32.943Z</time>
</trkpt>
<trkpt lat="31.8170800" lon="35.0939600">
<ele>631.289978</ele>
<time>2021-09-25T18:00:32.943Z</time>
</trkpt>
<trkpt lat="31.8171500" lon="35.0943300">
<ele>633.899963</ele>
<time>2021-09-25T18:00:32.943Z</time>
</trkpt>
<trkpt lat="31.8172700" lon="35.0948100">
<ele>641.150024</ele>
<time>2021-09-25T18:00:32.943Z</time>
</trkpt>
<trkpt lat="31.8173100" lon="35.0950700">
<ele>643.760010</ele>
<time>2021-09-25T18:00:32.943Z</time>
</trkpt>
<trkpt lat="31.8173200" lon="35.0952800">
<ele>645.829956</ele>
<time>2021-09-25T18:00:32.943Z</time>
</trkpt>
<trkpt lat="31.8173000" lon="35.0953900">
<ele>646.049988</ele>
<time>2021-09-25T18:00:32.943Z</time>
</trkpt>
<trkpt lat="31.8172900" lon="35.0954400">
<ele>646.119995</ele>
<time>2021-09-25T18:00:32.943Z</time>
</trkpt>
<trkpt lat="31.8172500" lon="35.0955600">
<ele>645.849976</ele>
<time>2021-09-25T18:00:32.944Z</time>
</trkpt>
<trkpt lat="31.8165800" lon="35.0969300">
<ele>650.900024</ele>
<time>2021-09-25T18:00:32.944Z</time>
</trkpt>
<trkpt lat="31.8161900" lon="35.0976200">
<ele>660.320007</ele>
<time>2021-09-25T18:00:32.944Z</time>
</trkpt>
<trkpt lat="31.8161000" lon="35.0978100">
<ele>663.279968</ele>
<time>2021-09-25T18:00:32.944Z</time>
</trkpt>
<trkpt lat="31.8160500" lon="35.0979300">
<ele>664.450012</ele>
<time>2021-09-25T18:00:32.944Z</time>
</trkpt>
<trkpt lat="31.8160200" lon="35.0979900">
<ele>665.169983</ele>
<time>2021-09-25T18:00:32.944Z</time>
</trkpt>
<trkpt lat="31.8159100" lon="35.0985400">
<ele>673.750000</ele>
<time>2021-09-25T18:00:32.944Z</time>
</trkpt>
<trkpt lat="31.8159100" lon="35.0985400">
<ele>673.750000</ele>
<time>2021-09-25T18:00:32.944Z</time>
</trkpt>
<trkpt lat="31.8159100" lon="35.0985400">
<ele>673.750000</ele>
<time>2021-09-25T18:00:32.944Z</time>
</trkpt>
<trkpt lat="31.8159100" lon="35.0985400">
<ele>673.750000</ele>
<time>2021-09-25T18:00:32.944Z</time>
</trkpt>
<trkpt lat="31.8158900" lon="35.0986600">
<ele>674.960022</ele>
<time>2021-09-25T18:00:32.944Z</time>
</trkpt>
<trkpt lat="31.8158600" lon="35.0989100">
<ele>677.840027</ele>
<time>2021-09-25T18:00:32.944Z</time>
</trkpt>
<trkpt lat="31.8158900" lon="35.0994100">
<ele>680.840027</ele>
<time>2021-09-25T18:00:32.944Z</time>
</trkpt>
<trkpt lat="31.8159200" lon="35.0996800">
<ele>682.389954</ele>
<time>2021-09-25T18:00:32.944Z</time>
</trkpt>
<trkpt lat="31.8159700" lon="35.0999500">
<ele>684.349976</ele>
<time>2021-09-25T18:00:32.944Z</time>
</trkpt>
<trkpt lat="31.8160500" lon="35.1001500">
<ele>686.219971</ele>
<time>2021-09-25T18:00:32.944Z</time>
</trkpt>
<trkpt lat="31.8161100" lon="35.1002500">
<ele>687.960022</ele>
<time>2021-09-25T18:00:32.944Z</time>
</trkpt>
<trkpt lat="31.8166800" lon="35.1009600">
<ele>699.219971</ele>
<time>2021-09-25T18:00:32.944Z</time>
</trkpt>
<trkpt lat="31.8167600" lon="35.1011000">
<ele>700.359985</ele>
<time>2021-09-25T18:00:32.944Z</time>
</trkpt>
<trkpt lat="31.8167900" lon="35.1012700">
<ele>702.490051</ele>
<time>2021-09-25T18:00:32.945Z</time>
</trkpt>
<trkpt lat="31.8167800" lon="35.1014800">
<ele>704.619995</ele>
<time>2021-09-25T18:00:32.945Z</time>
</trkpt>
<trkpt lat="31.8167400" lon="35.1017700">
<ele>707.370056</ele>
<time>2021-09-25T18:00:32.945Z</time>
</trkpt>
<trkpt lat="31.8164700" lon="35.1027400">
<ele>718.580017</ele>
<time>2021-09-25T18:00:32.945Z</time>
</trkpt>
<trkpt lat="31.8164400" lon="35.1029100">
<ele>720.250000</ele>
<time>2021-09-25T18:00:32.945Z</time>
</trkpt>
<trkpt lat="31.8164200" lon="35.1030700">
<ele>721.719971</ele>
<time>2021-09-25T18:00:32.945Z</time>
</trkpt>
<trkpt lat="31.8164600" lon="35.1032800">
<ele>724.700012</ele>
<time>2021-09-25T18:00:32.945Z</time>
</trkpt>
<trkpt lat="31.8166100" lon="35.1036600">
<ele>729.320007</ele>
<time>2021-09-25T18:00:32.945Z</time>
</trkpt>
<trkpt lat="31.8166400" lon="35.1037800">
<ele>730.169983</ele>
<time>2021-09-25T18:00:32.945Z</time>
</trkpt>
<trkpt lat="31.8166500" lon="35.1038200">
<ele>730.470032</ele>
<time>2021-09-25T18:00:32.945Z</time>
</trkpt>
<trkpt lat="31.8166700" lon="35.1040300">
<ele>731.590027</ele>
<time>2021-09-25T18:00:32.945Z</time>
</trkpt>
<trkpt lat="31.8166500" lon="35.1044600">
<ele>732.859985</ele>
<time>2021-09-25T18:00:32.945Z</time>
</trkpt>
<trkpt lat="31.8166000" lon="35.1045700">
<ele>732.939941</ele>
<time>2021-09-25T18:00:32.945Z</time>
</trkpt>
<trkpt lat="31.8165000" lon="35.1046900">
<ele>731.590027</ele>
<time>2021-09-25T18:00:32.945Z</time>
</trkpt>
<trkpt lat="31.8164000" lon="35.1047400">
<ele>729.660034</ele>
<time>2021-09-25T18:00:32.945Z</time>
</trkpt>
<trkpt lat="31.8160900" lon="35.1048400">
<ele>730.000000</ele>
<time>2021-09-25T18:00:32.945Z</time>
</trkpt>
<trkpt lat="31.8160100" lon="35.1049200">
<ele>731.090027</ele>
<time>2021-09-25T18:00:32.945Z</time>
</trkpt>
<trkpt lat="31.8160000" lon="35.1050000">
<ele>732.599976</ele>
<time>2021-09-25T18:00:32.945Z</time>
</trkpt>
<trkpt lat="31.8158900" lon="35.1051200">
<ele>735.480042</ele>
<time>2021-09-25T18:00:32.946Z</time>
</trkpt>
<trkpt lat="31.8156000" lon="35.1051900">
<ele>736.059998</ele>
<time>2021-09-25T18:00:32.946Z</time>
</trkpt>
<trkpt lat="31.8154300" lon="35.1052400">
<ele>736.840027</ele>
<time>2021-09-25T18:00:32.946Z</time>
</trkpt>
<trkpt lat="31.8152000" lon="35.1052900">
<ele>736.829956</ele>
<time>2021-09-25T18:00:32.946Z</time>
</trkpt>
<trkpt lat="31.8148800" lon="35.1053900">
<ele>733.899963</ele>
<time>2021-09-25T18:00:32.946Z</time>
</trkpt>
<trkpt lat="31.8147200" lon="35.1054400">
<ele>731.309998</ele>
<time>2021-09-25T18:00:32.946Z</time>
</trkpt>
<trkpt lat="31.8144000" lon="35.1055800">
<ele>729.309998</ele>
<time>2021-09-25T18:00:32.946Z</time>
</trkpt>
<trkpt lat="31.8143400" lon="35.1055800">
<ele>729.250000</ele>
<time>2021-09-25T18:00:32.946Z</time>
</trkpt>
<trkpt lat="31.8139300" lon="35.1058000">
<ele>728.380005</ele>
<time>2021-09-25T18:00:32.946Z</time>
</trkpt>
<trkpt lat="31.8136600" lon="35.1059600">
<ele>730.630005</ele>
<time>2021-09-25T18:00:32.946Z</time>
</trkpt>
<trkpt lat="31.8135400" lon="35.1060600">
<ele>731.720032</ele>
<time>2021-09-25T18:00:32.946Z</time>
</trkpt>
<trkpt lat="31.8132600" lon="35.1063100">
<ele>736.630005</ele>
<time>2021-09-25T18:00:32.946Z</time>
</trkpt>
<trkpt lat="31.8136400" lon="35.1065100">
<ele>737.830017</ele>
<time>2021-09-25T18:00:32.946Z</time>
</trkpt>
<trkpt lat="31.8139400" lon="35.1066700">
<ele>741.060059</ele>
<time>2021-09-25T18:00:32.946Z</time>
</trkpt>
<trkpt lat="31.8140800" lon="35.1067600">
<ele>742.680054</ele>
<time>2021-09-25T18:00:32.946Z</time>
</trkpt>
<trkpt lat="31.8142300" lon="35.1069400">
<ele>746.609985</ele>
<time>2021-09-25T18:00:32.946Z</time>
</trkpt>
<trkpt lat="31.8144300" lon="35.1071900">
<ele>748.049988</ele>
<time>2021-09-25T18:00:32.946Z</time>
</trkpt>
<trkpt lat="31.8149700" lon="35.1077600">
<ele>750.820007</ele>
<time>2021-09-25T18:00:32.946Z</time>
</trkpt>
<trkpt lat="31.8152300" lon="35.1079500">
<ele>751.829956</ele>
<time>2021-09-25T18:00:32.947Z</time>
</trkpt>
<trkpt lat="31.8153600" lon="35.1082200">
<ele>750.410034</ele>
<time>2021-09-25T18:00:32.947Z</time>
</trkpt>
<trkpt lat="31.8154700" lon="35.1085400">
<ele>749.280029</ele>
<time>2021-09-25T18:00:32.947Z</time>
</trkpt>
<trkpt lat="31.8154800" lon="35.1089500">
<ele>746.910034</ele>
<time>2021-09-25T18:00:32.947Z</time>
</trkpt>
<trkpt lat="31.8154200" lon="35.1093300">
<ele>747.809998</ele>
<time>2021-09-25T18:00:32.947Z</time>
</trkpt>
<trkpt lat="31.8153600" lon="35.1096300">
<ele>751.049988</ele>
<time>2021-09-25T18:00:32.947Z</time>
</trkpt>
<trkpt lat="31.8153800" lon="35.1099300">
<ele>755.080017</ele>
<time>2021-09-25T18:00:32.947Z</time>
</trkpt>
<trkpt lat="31.8154600" lon="35.1103100">
<ele>758.360046</ele>
<time>2021-09-25T18:00:32.947Z</time>
</trkpt>
<trkpt lat="31.8155200" lon="35.1106100">
<ele>759.670044</ele>
<time>2021-09-25T18:00:32.947Z</time>
</trkpt>
<trkpt lat="31.8154200" lon="35.1106000">
<ele>758.690002</ele>
<time>2021-09-25T18:00:32.947Z</time>
</trkpt>
<trkpt lat="31.8137400" lon="35.1105700">
<ele>724.890015</ele>
<time>2021-09-25T18:00:32.947Z</time>
</trkpt>
<trkpt lat="31.8136300" lon="35.1105900">
<ele>722.659973</ele>
<time>2021-09-25T18:00:32.947Z</time>
</trkpt>
<trkpt lat="31.8136300" lon="35.1105900">
<ele>722.659973</ele>
<time>2021-09-25T18:00:32.947Z</time>
</trkpt>
<trkpt lat="31.8136300" lon="35.1105900">
<ele>722.659973</ele>
<time>2021-09-25T18:00:32.947Z</time>
</trkpt>
<trkpt lat="31.8135100" lon="35.1106200">
<ele>721.739990</ele>
<time>2021-09-25T18:00:32.947Z</time>
</trkpt>
<trkpt lat="31.8130900" lon="35.1108300">
<ele>719.359985</ele>
<time>2021-09-25T18:00:32.947Z</time>
</trkpt>
<trkpt lat="31.8125000" lon="35.1109300">
<ele>715.700012</ele>
<time>2021-09-25T18:00:32.947Z</time>
</trkpt>
<trkpt lat="31.8119000" lon="35.1119200">
<ele>709.200012</ele>
<time>2021-09-25T18:00:32.947Z</time>
</trkpt>
<trkpt lat="31.8115700" lon="35.1121600">
<ele>709.540039</ele>
<time>2021-09-25T18:00:32.948Z</time>
</trkpt>
<trkpt lat="31.8111400" lon="35.1128500">
<ele>708.459961</ele>
<time>2021-09-25T18:00:32.948Z</time>
</trkpt>
<trkpt lat="31.8109100" lon="35.1130000">
<ele>711.500000</ele>
<time>2021-09-25T18:00:32.948Z</time>
</trkpt>
<trkpt lat="31.8101900" lon="35.1126300">
<ele>713.440002</ele>
<time>2021-09-25T18:00:32.948Z</time>
</trkpt>
<trkpt lat="31.8098600" lon="35.1126800">
<ele>710.530029</ele>
<time>2021-09-25T18:00:32.948Z</time>
</trkpt>
<trkpt lat="31.8097200" lon="35.1129600">
<ele>708.679993</ele>
<time>2021-09-25T18:00:32.948Z</time>
</trkpt>
<trkpt lat="31.8095500" lon="35.1131300">
<ele>706.579956</ele>
<time>2021-09-25T18:00:32.948Z</time>
</trkpt>
<trkpt lat="31.8094200" lon="35.1134600">
<ele>702.589966</ele>
<time>2021-09-25T18:00:32.948Z</time>
</trkpt>
<trkpt lat="31.8093200" lon="35.1138500">
<ele>696.340027</ele>
<time>2021-09-25T18:00:32.948Z</time>
</trkpt>
<trkpt lat="31.8092500" lon="35.1141400">
<ele>690.200012</ele>
<time>2021-09-25T18:00:32.948Z</time>
</trkpt>
<trkpt lat="31.8091900" lon="35.1143800">
<ele>688.830017</ele>
<time>2021-09-25T18:00:32.948Z</time>
</trkpt>
<trkpt lat="31.8087000" lon="35.1150100">
<ele>689.299988</ele>
<time>2021-09-25T18:00:32.948Z</time>
</trkpt>
<trkpt lat="31.8079200" lon="35.1152800">
<ele>684.579956</ele>
<time>2021-09-25T18:00:32.948Z</time>
</trkpt>
<trkpt lat="31.8071200" lon="35.1160600">
<ele>682.359985</ele>
<time>2021-09-25T18:00:32.948Z</time>
</trkpt>
<trkpt lat="31.8069800" lon="35.1160000">
<ele>680.799988</ele>
<time>2021-09-25T18:00:32.948Z</time>
</trkpt>
<trkpt lat="31.8068300" lon="35.1158500">
<ele>674.039978</ele>
<time>2021-09-25T18:00:32.948Z</time>
</trkpt>
<trkpt lat="31.8066900" lon="35.1158100">
<ele>669.260010</ele>
<time>2021-09-25T18:00:32.948Z</time>
</trkpt>
<trkpt lat="31.8065000" lon="35.1159000">
<ele>666.339966</ele>
<time>2021-09-25T18:00:32.948Z</time>
</trkpt>
<trkpt lat="31.8062900" lon="35.1160900">
<ele>660.909973</ele>
<time>2021-09-25T18:00:32.948Z</time>
</trkpt>
<trkpt lat="31.8058700" lon="35.1165000">
<ele>656.900024</ele>
<time>2021-09-25T18:00:32.948Z</time>
</trkpt>
<trkpt lat="31.8047000" lon="35.1179200">
<ele>648.779968</ele>
<time>2021-09-25T18:00:32.948Z</time>
</trkpt>
<trkpt lat="31.8043200" lon="35.1183100">
<ele>647.020020</ele>
<time>2021-09-25T18:00:32.948Z</time>
</trkpt>
<trkpt lat="31.8030000" lon="35.1193700">
<ele>634.739990</ele>
<time>2021-09-25T18:00:32.948Z</time>
</trkpt>
<trkpt lat="31.8026800" lon="35.1196300">
<ele>628.670044</ele>
<time>2021-09-25T18:00:32.949Z</time>
</trkpt>
<trkpt lat="31.8025100" lon="35.1199800">
<ele>628.040039</ele>
<time>2021-09-25T18:00:32.949Z</time>
</trkpt>
<trkpt lat="31.8024100" lon="35.1207400">
<ele>623.679993</ele>
<time>2021-09-25T18:00:32.949Z</time>
</trkpt>
<trkpt lat="31.8021400" lon="35.1210600">
<ele>621.479980</ele>
<time>2021-09-25T18:00:32.949Z</time>
</trkpt>
<trkpt lat="31.8019300" lon="35.1210700">
<ele>619.769958</ele>
<time>2021-09-25T18:00:32.949Z</time>
</trkpt>
<trkpt lat="31.8018600" lon="35.1211400">
<ele>619.330017</ele>
<time>2021-09-25T18:00:32.949Z</time>
</trkpt>
<trkpt lat="31.8018300" lon="35.1213900">
<ele>618.350037</ele>
<time>2021-09-25T18:00:32.949Z</time>
</trkpt>
<trkpt lat="31.8017400" lon="35.1214500">
<ele>617.100037</ele>
<time>2021-09-25T18:00:32.949Z</time>
</trkpt>
<trkpt lat="31.8017400" lon="35.1214500">
<ele>617.100037</ele>
<time>2021-09-25T18:00:32.949Z</time>
</trkpt>
<trkpt lat="31.8013400" lon="35.1213800">
<ele>616.010010</ele>
<time>2021-09-25T18:00:32.949Z</time>
</trkpt>
<trkpt lat="31.8013400" lon="35.1213800">
<ele>616.010010</ele>
<time>2021-09-25T18:00:32.949Z</time>
</trkpt>
<trkpt lat="31.8013600" lon="35.1213800">
<ele>616.010010</ele>
<time>2021-09-25T18:00:32.949Z</time>
</trkpt>
<trkpt lat="31.8013300" lon="35.1218900">
<ele>617.250000</ele>
<time>2021-09-25T18:00:32.949Z</time>
</trkpt>
<trkpt lat="31.8012700" lon="35.1221900">
<ele>614.570007</ele>
<time>2021-09-25T18:00:32.949Z</time>
</trkpt>
<trkpt lat="31.8012600" lon="35.1222800">
<ele>614.239990</ele>
<time>2021-09-25T18:00:32.949Z</time>
</trkpt>
<trkpt lat="31.8012500" lon="35.1223100">
<ele>614.159973</ele>
<time>2021-09-25T18:00:32.949Z</time>
</trkpt>
<trkpt lat="31.8012500" lon="35.1223300">
<ele>614.190002</ele>
<time>2021-09-25T18:00:32.949Z</time>
</trkpt>
<trkpt lat="31.8012400" lon="35.1223600">
<ele>614.119995</ele>
<time>2021-09-25T18:00:32.949Z</time>
</trkpt>
<trkpt lat="31.8012300" lon="35.1223900">
<ele>614.059998</ele>
<time>2021-09-25T18:00:32.949Z</time>
</trkpt>
<trkpt lat="31.8012300" lon="35.1224200">
<ele>614.119995</ele>
<time>2021-09-25T18:00:32.949Z</time>
</trkpt>
<trkpt lat="31.8012200" lon="35.1224500">
<ele>614.070007</ele>
<time>2021-09-25T18:00:32.949Z</time>
</trkpt>
<trkpt lat="31.8012100" lon="35.1224700">
<ele>614.000000</ele>
<time>2021-09-25T18:00:32.949Z</time>
</trkpt>
<trkpt lat="31.8012000" lon="35.1225000">
<ele>613.960022</ele>
<time>2021-09-25T18:00:32.949Z</time>
</trkpt>
<trkpt lat="31.8011900" lon="35.1225400">
<ele>614.140015</ele>
<time>2021-09-25T18:00:32.950Z</time>
</trkpt>
<trkpt lat="31.8011800" lon="35.1225600">
<ele>614.179993</ele>
<time>2021-09-25T18:00:32.950Z</time>
</trkpt>
<trkpt lat="31.8010100" lon="35.1230000">
<ele>615.070007</ele>
<time>2021-09-25T18:00:32.950Z</time>
</trkpt>
<trkpt lat="31.8010000" lon="35.1230200">
<ele>615.090027</ele>
<time>2021-09-25T18:00:32.950Z</time>
</trkpt>
<trkpt lat="31.8009900" lon="35.1230400">
<ele>615.119995</ele>
<time>2021-09-25T18:00:32.950Z</time>
</trkpt>
<trkpt lat="31.8009700" lon="35.1230600">
<ele>615.010010</ele>
<time>2021-09-25T18:00:32.950Z</time>
</trkpt>
<trkpt lat="31.8009600" lon="35.1230900">
<ele>615.140015</ele>
<time>2021-09-25T18:00:32.950Z</time>
</trkpt>
<trkpt lat="31.8009500" lon="35.1231100">
<ele>615.190002</ele>
<time>2021-09-25T18:00:32.950Z</time>
</trkpt>
<trkpt lat="31.8009300" lon="35.1231400">
<ele>615.200012</ele>
<time>2021-09-25T18:00:32.950Z</time>
</trkpt>
<trkpt lat="31.8009200" lon="35.1231600">
<ele>615.260010</ele>
<time>2021-09-25T18:00:32.950Z</time>
</trkpt>
<trkpt lat="31.8009100" lon="35.1231900">
<ele>615.419983</ele>
<time>2021-09-25T18:00:32.950Z</time>
</trkpt>
<trkpt lat="31.8009000" lon="35.1232200">
<ele>615.590027</ele>
<time>2021-09-25T18:00:32.950Z</time>
</trkpt>
<trkpt lat="31.8008900" lon="35.1232400">
<ele>615.669983</ele>
<time>2021-09-25T18:00:32.950Z</time>
</trkpt>
<trkpt lat="31.8008900" lon="35.1232700">
<ele>615.969971</ele>
<time>2021-09-25T18:00:32.950Z</time>
</trkpt>
<trkpt lat="31.8008800" lon="35.1233000">
<ele>616.160034</ele>
<time>2021-09-25T18:00:32.950Z</time>
</trkpt>
<trkpt lat="31.8008800" lon="35.1233300">
<ele>616.470032</ele>
<time>2021-09-25T18:00:32.950Z</time>
</trkpt>
<trkpt lat="31.8008700" lon="35.1233600">
<ele>616.830017</ele>
<time>2021-09-25T18:00:32.950Z</time>
</trkpt>
<trkpt lat="31.8008700" lon="35.1233900">
<ele>617.309998</ele>
<time>2021-09-25T18:00:32.950Z</time>
</trkpt>
<trkpt lat="31.8008700" lon="35.1234200">
<ele>617.790039</ele>
<time>2021-09-25T18:00:32.950Z</time>
</trkpt>
<trkpt lat="31.8008600" lon="35.1234400">
<ele>618.059998</ele>
<time>2021-09-25T18:00:32.950Z</time>
</trkpt>
<trkpt lat="31.8008500" lon="35.1234700">
<ele>618.520020</ele>
<time>2021-09-25T18:00:32.950Z</time>
</trkpt>
<trkpt lat="31.8008400" lon="35.1234900">
<ele>618.839966</ele>
<time>2021-09-25T18:00:32.950Z</time>
</trkpt>
<trkpt lat="31.8008300" lon="35.1235200">
<ele>619.330017</ele>
<time>2021-09-25T18:00:32.950Z</time>
</trkpt>
<trkpt lat="31.8008000" lon="35.1235400">
<ele>619.390015</ele>
<time>2021-09-25T18:00:32.950Z</time>
</trkpt>
<trkpt lat="31.8007800" lon="35.1235800">
<ele>619.890015</ele>
<time>2021-09-25T18:00:32.950Z</time>
</trkpt>
<trkpt lat="31.8007600" lon="35.1236100">
<ele>620.190002</ele>
<time>2021-09-25T18:00:32.951Z</time>
</trkpt>
<trkpt lat="31.8007500" lon="35.1236500">
<ele>620.039978</ele>
<time>2021-09-25T18:00:32.951Z</time>
</trkpt>
<trkpt lat="31.8007400" lon="35.1236900">
<ele>619.899963</ele>
<time>2021-09-25T18:00:32.951Z</time>
</trkpt>
<trkpt lat="31.8007400" lon="35.1237300">
<ele>619.850037</ele>
<time>2021-09-25T18:00:32.951Z</time>
</trkpt>
<trkpt lat="31.8007400" lon="35.1237800">
<ele>619.789978</ele>
<time>2021-09-25T18:00:32.951Z</time>
</trkpt>
<trkpt lat="31.8007500" lon="35.1238200">
<ele>619.799988</ele>
<time>2021-09-25T18:00:32.951Z</time>
</trkpt>
<trkpt lat="31.8007400" lon="35.1238900">
<ele>619.669983</ele>
<time>2021-09-25T18:00:32.951Z</time>
</trkpt>
<trkpt lat="31.8007300" lon="35.1239500">
<ele>619.769958</ele>
<time>2021-09-25T18:00:32.951Z</time>
</trkpt>
<trkpt lat="31.8007100" lon="35.1240100">
<ele>619.799988</ele>
<time>2021-09-25T18:00:32.951Z</time>
</trkpt>
<trkpt lat="31.8006800" lon="35.1240700">
<ele>619.739990</ele>
<time>2021-09-25T18:00:32.951Z</time>
</trkpt>
<trkpt lat="31.8006500" lon="35.1241300">
<ele>619.639954</ele>
<time>2021-09-25T18:00:32.951Z</time>
</trkpt>
<trkpt lat="31.8006200" lon="35.1241800">
<ele>619.450012</ele>
<time>2021-09-25T18:00:32.951Z</time>
</trkpt>
<trkpt lat="31.8005800" lon="35.1242300">
<ele>619.160034</ele>
<time>2021-09-25T18:00:32.951Z</time>
</trkpt>
<trkpt lat="31.8005500" lon="35.1242700">
<ele>619.039978</ele>
<time>2021-09-25T18:00:32.951Z</time>
</trkpt>
<trkpt lat="31.8005200" lon="35.1243200">
<ele>619.260010</ele>
<time>2021-09-25T18:00:32.951Z</time>
</trkpt>
<trkpt lat="31.8004900" lon="35.1243600">
<ele>619.469971</ele>
<time>2021-09-25T18:00:32.951Z</time>
</trkpt>
<trkpt lat="31.8000600" lon="35.1248700">
<ele>621.330017</ele>
<time>2021-09-25T18:00:32.951Z</time>
</trkpt>
<trkpt lat="31.8000300" lon="35.1249000">
<ele>621.179993</ele>
<time>2021-09-25T18:00:32.951Z</time>
</trkpt>
<trkpt lat="31.7999900" lon="35.1249400">
<ele>621.010010</ele>
<time>2021-09-25T18:00:32.951Z</time>
</trkpt>
<trkpt lat="31.7999600" lon="35.1249700">
<ele>621.020020</ele>
<time>2021-09-25T18:00:32.951Z</time>
</trkpt>
<trkpt lat="31.7999300" lon="35.1250100">
<ele>620.950012</ele>
<time>2021-09-25T18:00:32.951Z</time>
</trkpt>
<trkpt lat="31.7998900" lon="35.1250500">
<ele>620.750000</ele>
<time>2021-09-25T18:00:32.951Z</time>
</trkpt>
<trkpt lat="31.7998600" lon="35.1250800">
<ele>620.570007</ele>
<time>2021-09-25T18:00:32.951Z</time>
</trkpt>
<trkpt lat="31.7998300" lon="35.1251100">
<ele>620.359985</ele>
<time>2021-09-25T18:00:32.951Z</time>
</trkpt>
<trkpt lat="31.7997900" lon="35.1251400">
<ele>620.109985</ele>
<time>2021-09-25T18:00:32.951Z</time>
</trkpt>
<trkpt lat="31.7997600" lon="35.1251600">
<ele>619.929993</ele>
<time>2021-09-25T18:00:32.951Z</time>
</trkpt>
<trkpt lat="31.7997200" lon="35.1251800">
<ele>619.700012</ele>
<time>2021-09-25T18:00:32.951Z</time>
</trkpt>
<trkpt lat="31.7997000" lon="35.1251800">
<ele>619.679993</ele>
<time>2021-09-25T18:00:32.951Z</time>
</trkpt>
<trkpt lat="31.7996700" lon="35.1252000">
<ele>619.510010</ele>
<time>2021-09-25T18:00:32.951Z</time>
</trkpt>
<trkpt lat="31.7996400" lon="35.1252200">
<ele>619.349976</ele>
<time>2021-09-25T18:00:32.951Z</time>
</trkpt>
<trkpt lat="31.7996100" lon="35.1252500">
<ele>619.160034</ele>
<time>2021-09-25T18:00:32.951Z</time>
</trkpt>
<trkpt lat="31.7995900" lon="35.1252800">
<ele>618.989990</ele>
<time>2021-09-25T18:00:32.951Z</time>
</trkpt>
<trkpt lat="31.7995800" lon="35.1252900">
<ele>618.950012</ele>
<time>2021-09-25T18:00:32.951Z</time>
</trkpt>
<trkpt lat="31.7995700" lon="35.1253200">
<ele>618.829956</ele>
<time>2021-09-25T18:00:32.951Z</time>
</trkpt>
<trkpt lat="31.7995600" lon="35.1253300">
<ele>618.780029</ele>
<time>2021-09-25T18:00:32.951Z</time>
</trkpt>
<trkpt lat="31.7995400" lon="35.1253700">
<ele>618.559998</ele>
<time>2021-09-25T18:00:32.951Z</time>
</trkpt>
<trkpt lat="31.7995200" lon="35.1254000">
<ele>618.359985</ele>
<time>2021-09-25T18:00:32.951Z</time>
</trkpt>
<trkpt lat="31.7995000" lon="35.1254100">
<ele>618.239990</ele>
<time>2021-09-25T18:00:32.951Z</time>
</trkpt>
<trkpt lat="31.7994800" lon="35.1254300">
<ele>618.039978</ele>
<time>2021-09-25T18:00:32.952Z</time>
</trkpt>
<trkpt lat="31.7994600" lon="35.1254500">
<ele>617.830017</ele>
<time>2021-09-25T18:00:32.952Z</time>
</trkpt>
<trkpt lat="31.7994300" lon="35.1254700">
<ele>617.440002</ele>
<time>2021-09-25T18:00:32.952Z</time>
</trkpt>
<trkpt lat="31.7994100" lon="35.1254900">
<ele>617.029968</ele>
<time>2021-09-25T18:00:32.952Z</time>
</trkpt>
<trkpt lat="31.7993800" lon="35.1255000">
<ele>616.559998</ele>
<time>2021-09-25T18:00:32.952Z</time>
</trkpt>
<trkpt lat="31.7993600" lon="35.1255100">
<ele>616.210022</ele>
<time>2021-09-25T18:00:32.952Z</time>
</trkpt>
<trkpt lat="31.7993300" lon="35.1255300">
<ele>615.609985</ele>
<time>2021-09-25T18:00:32.952Z</time>
</trkpt>
<trkpt lat="31.7986600" lon="35.1257700">
<ele>602.260010</ele>
<time>2021-09-25T18:00:32.952Z</time>
</trkpt>
<trkpt lat="31.7985000" lon="35.1258100">
<ele>602.429993</ele>
<time>2021-09-25T18:00:32.952Z</time>
</trkpt>
<trkpt lat="31.7983400" lon="35.1258400">
<ele>603.099976</ele>
<time>2021-09-25T18:00:32.952Z</time>
</trkpt>
<trkpt lat="31.7981900" lon="35.1258400">
<ele>603.070007</ele>
<time>2021-09-25T18:00:32.952Z</time>
</trkpt>
<trkpt lat="31.7980700" lon="35.1258200">
<ele>603.140015</ele>
<time>2021-09-25T18:00:32.952Z</time>
</trkpt>
<trkpt lat="31.7979700" lon="35.1257900">
<ele>605.219971</ele>
<time>2021-09-25T18:00:32.952Z</time>
</trkpt>
<trkpt lat="31.7978000" lon="35.1257200">
<ele>608.989990</ele>
<time>2021-09-25T18:00:32.952Z</time>
</trkpt>
<trkpt lat="31.7975700" lon="35.1255900">
<ele>612.679993</ele>
<time>2021-09-25T18:00:32.952Z</time>
</trkpt>
<trkpt lat="31.7975700" lon="35.1255900">
<ele>612.679993</ele>
<time>2021-09-25T18:00:32.952Z</time>
</trkpt>
<trkpt lat="31.7975700" lon="35.1255900">
<ele>612.679993</ele>
<time>2021-09-25T18:00:32.952Z</time>
</trkpt>
<trkpt lat="31.7974900" lon="35.1255400">
<ele>614.109985</ele>
<time>2021-09-25T18:00:32.952Z</time>
</trkpt>
<trkpt lat="31.7972400" lon="35.1253700">
<ele>614.089966</ele>
<time>2021-09-25T18:00:32.952Z</time>
</trkpt>
<trkpt lat="31.7970200" lon="35.1251900">
<ele>615.359985</ele>
<time>2021-09-25T18:00:32.952Z</time>
</trkpt>
<trkpt lat="31.7969200" lon="35.1250900">
<ele>616.500000</ele>
<time>2021-09-25T18:00:32.952Z</time>
</trkpt>
<trkpt lat="31.7968400" lon="35.1250000">
<ele>617.380005</ele>
<time>2021-09-25T18:00:32.952Z</time>
</trkpt>
<trkpt lat="31.7967500" lon="35.1248900">
<ele>617.739990</ele>
<time>2021-09-25T18:00:32.952Z</time>
</trkpt>
<trkpt lat="31.7966800" lon="35.1247600">
<ele>616.510010</ele>
<time>2021-09-25T18:00:32.952Z</time>
</trkpt>
<trkpt lat="31.7966200" lon="35.1246100">
<ele>615.829956</ele>
<time>2021-09-25T18:00:32.952Z</time>
</trkpt>
<trkpt lat="31.7963600" lon="35.1238900">
<ele>615.789978</ele>
<time>2021-09-25T18:00:32.953Z</time>
</trkpt>
<trkpt lat="31.7963200" lon="35.1237500">
<ele>615.130005</ele>
<time>2021-09-25T18:00:32.953Z</time>
</trkpt>
<trkpt lat="31.7962900" lon="35.1235900">
<ele>614.070007</ele>
<time>2021-09-25T18:00:32.953Z</time>
</trkpt>
<trkpt lat="31.7962700" lon="35.1234100">
<ele>612.409973</ele>
<time>2021-09-25T18:00:32.953Z</time>
</trkpt>
<trkpt lat="31.7962500" lon="35.1230300">
<ele>609.320007</ele>
<time>2021-09-25T18:00:32.953Z</time>
</trkpt>
<trkpt lat="31.7962800" lon="35.1230200">
<ele>609.780029</ele>
<time>2021-09-25T18:00:32.953Z</time>
</trkpt>
<trkpt lat="31.7963100" lon="35.1229900">
<ele>610.109985</ele>
<time>2021-09-25T18:00:32.953Z</time>
</trkpt>
<trkpt lat="31.7963200" lon="35.1229500">
<ele>610.000000</ele>
<time>2021-09-25T18:00:32.953Z</time>
</trkpt>
<trkpt lat="31.7963300" lon="35.1229200">
<ele>609.960022</ele>
<time>2021-09-25T18:00:32.953Z</time>
</trkpt>
<trkpt lat="31.7963200" lon="35.1228800">
<ele>609.500000</ele>
<time>2021-09-25T18:00:32.953Z</time>
</trkpt>
<trkpt lat="31.7963100" lon="35.1228400">
<ele>609.029968</ele>
<time>2021-09-25T18:00:32.953Z</time>
</trkpt>
<trkpt lat="31.7962800" lon="35.1228200">
<ele>608.339966</ele>
<time>2021-09-25T18:00:32.953Z</time>
</trkpt>
<trkpt lat="31.7962500" lon="35.1228000">
<ele>607.659973</ele>
<time>2021-09-25T18:00:32.953Z</time>
</trkpt>
<trkpt lat="31.7962300" lon="35.1228000">
<ele>607.299988</ele>
<time>2021-09-25T18:00:32.953Z</time>
</trkpt>
<trkpt lat="31.7962200" lon="35.1225300">
<ele>605.720032</ele>
<time>2021-09-25T18:00:32.953Z</time>
</trkpt>
<trkpt lat="31.7961800" lon="35.1218900">
<ele>602.970032</ele>
<time>2021-09-25T18:00:32.953Z</time>
</trkpt>
<trkpt lat="31.7961700" lon="35.1216400">
<ele>599.600037</ele>
<time>2021-09-25T18:00:32.953Z</time>
</trkpt>
<trkpt lat="31.7961300" lon="35.1212800">
<ele>597.500000</ele>
<time>2021-09-25T18:00:32.953Z</time>
</trkpt>
<trkpt lat="31.7960900" lon="35.1210400">
<ele>594.260010</ele>
<time>2021-09-25T18:00:32.953Z</time>
</trkpt>
<trkpt lat="31.7960200" lon="35.1207100">
<ele>591.429993</ele>
<time>2021-09-25T18:00:32.953Z</time>
</trkpt>
<trkpt lat="31.7959800" lon="35.1206000">
<ele>590.350037</ele>
<time>2021-09-25T18:00:32.953Z</time>
</trkpt>
<trkpt lat="31.7959300" lon="35.1205200">
<ele>589.140015</ele>
<time>2021-09-25T18:00:32.953Z</time>
</trkpt>
<trkpt lat="31.7958900" lon="35.1204700">
<ele>588.200012</ele>
<time>2021-09-25T18:00:32.953Z</time>
</trkpt>
<trkpt lat="31.7958600" lon="35.1204400">
<ele>587.549988</ele>
<time>2021-09-25T18:00:32.953Z</time>
</trkpt>
<trkpt lat="31.7958000" lon="35.1204000">
<ele>586.520020</ele>
<time>2021-09-25T18:00:32.954Z</time>
</trkpt>
<trkpt lat="31.7957500" lon="35.1203800">
<ele>585.840027</ele>
<time>2021-09-25T18:00:32.954Z</time>
</trkpt>
<trkpt lat="31.7956800" lon="35.1203800">
<ele>585.080017</ele>
<time>2021-09-25T18:00:32.954Z</time>
</trkpt>
<trkpt lat="31.7952900" lon="35.1204300">
<ele>584.000000</ele>
<time>2021-09-25T18:00:32.954Z</time>
</trkpt>
<trkpt lat="31.7952700" lon="35.1203900">
<ele>584.159973</ele>
<time>2021-09-25T18:00:32.954Z</time>
</trkpt>
<trkpt lat="31.7952400" lon="35.1203700">
<ele>584.770020</ele>
<time>2021-09-25T18:00:32.954Z</time>
</trkpt>
<trkpt lat="31.7952100" lon="35.1203700">
<ele>585.380005</ele>
<time>2021-09-25T18:00:32.954Z</time>
</trkpt>
<trkpt lat="31.7952000" lon="35.1203700">
<ele>585.590027</ele>
<time>2021-09-25T18:00:32.954Z</time>
</trkpt>
<trkpt lat="31.7951700" lon="35.1203800">
<ele>586.190002</ele>
<time>2021-09-25T18:00:32.954Z</time>
</trkpt>
<trkpt lat="31.7951400" lon="35.1202300">
<ele>586.889954</ele>
<time>2021-09-25T18:00:32.954Z</time>
</trkpt>
<trkpt lat="31.7951300" lon="35.1201600">
<ele>586.989990</ele>
<time>2021-09-25T18:00:32.954Z</time>
</trkpt>
<trkpt lat="31.7951400" lon="35.1199600">
<ele>586.690002</ele>
<time>2021-09-25T18:00:32.954Z</time>
</trkpt>
<trkpt lat="31.7952200" lon="35.1193800">
<ele>589.359985</ele>
<time>2021-09-25T18:00:32.954Z</time>
</trkpt>
<trkpt lat="31.7952200" lon="35.1189900">
<ele>592.669983</ele>
<time>2021-09-25T18:00:32.954Z</time>
</trkpt>
<trkpt lat="31.7951700" lon="35.1186300">
<ele>593.600037</ele>
<time>2021-09-25T18:00:32.954Z</time>
</trkpt>
<trkpt lat="31.7950600" lon="35.1184000">
<ele>592.859985</ele>
<time>2021-09-25T18:00:32.954Z</time>
</trkpt>
<trkpt lat="31.7949300" lon="35.1181800">
<ele>593.750000</ele>
<time>2021-09-25T18:00:32.954Z</time>
</trkpt>
<trkpt lat="31.7946600" lon="35.1177900">
<ele>594.320007</ele>
<time>2021-09-25T18:00:32.954Z</time>
</trkpt>
<trkpt lat="31.7943500" lon="35.1174700">
<ele>595.339966</ele>
<time>2021-09-25T18:00:32.954Z</time>
</trkpt>
<trkpt lat="31.7940200" lon="35.1172100">
<ele>596.229980</ele>
<time>2021-09-25T18:00:32.955Z</time>
</trkpt>
<trkpt lat="31.7935300" lon="35.1169700">
<ele>598.090027</ele>
<time>2021-09-25T18:00:32.955Z</time>
</trkpt>
<trkpt lat="31.7934900" lon="35.1169600">
<ele>598.299988</ele>
<time>2021-09-25T18:00:32.955Z</time>
</trkpt>
<trkpt lat="31.7933600" lon="35.1169200">
<ele>598.669983</ele>
<time>2021-09-25T18:00:32.955Z</time>
</trkpt>
<trkpt lat="31.7932200" lon="35.1168800">
<ele>597.450012</ele>
<time>2021-09-25T18:00:32.955Z</time>
</trkpt>
<trkpt lat="31.7929400" lon="35.1167600">
<ele>590.890015</ele>
<time>2021-09-25T18:00:32.955Z</time>
</trkpt>
<trkpt lat="31.7928200" lon="35.1167000">
<ele>586.830017</ele>
<time>2021-09-25T18:00:32.955Z</time>
</trkpt>
<trkpt lat="31.7923600" lon="35.1166000">
<ele>583.209961</ele>
<time>2021-09-25T18:00:32.955Z</time>
</trkpt>
<trkpt lat="31.7918400" lon="35.1168400">
<ele>586.179993</ele>
<time>2021-09-25T18:00:32.955Z</time>
</trkpt>
<trkpt lat="31.7915500" lon="35.1167300">
<ele>585.429993</ele>
<time>2021-09-25T18:00:32.955Z</time>
</trkpt>
<trkpt lat="31.7915000" lon="35.1164300">
<ele>584.010010</ele>
<time>2021-09-25T18:00:32.955Z</time>
</trkpt>
<trkpt lat="31.7914100" lon="35.1161300">
<ele>581.039978</ele>
<time>2021-09-25T18:00:32.955Z</time>
</trkpt>
<trkpt lat="31.7913700" lon="35.1159000">
<ele>577.320007</ele>
<time>2021-09-25T18:00:32.956Z</time>
</trkpt>
<trkpt lat="31.7912800" lon="35.1155500">
<ele>573.780029</ele>
<time>2021-09-25T18:00:32.956Z</time>
</trkpt>
<trkpt lat="31.7912300" lon="35.1153900">
<ele>573.799988</ele>
<time>2021-09-25T18:00:32.956Z</time>
</trkpt>
<trkpt lat="31.7912200" lon="35.1153200">
<ele>573.700012</ele>
<time>2021-09-25T18:00:32.956Z</time>
</trkpt>
<trkpt lat="31.7910900" lon="35.1150500">
<ele>573.409973</ele>
<time>2021-09-25T18:00:32.956Z</time>
</trkpt>
<trkpt lat="31.7910300" lon="35.1149100">
<ele>573.419983</ele>
<time>2021-09-25T18:00:32.956Z</time>
</trkpt>
<trkpt lat="31.7910000" lon="35.1148000">
<ele>573.340027</ele>
<time>2021-09-25T18:00:32.956Z</time>
</trkpt>
<trkpt lat="31.7907900" lon="35.1138300">
<ele>570.650024</ele>
<time>2021-09-25T18:00:32.956Z</time>
</trkpt>
<trkpt lat="31.7907400" lon="35.1137200">
<ele>571.409973</ele>
<time>2021-09-25T18:00:32.956Z</time>
</trkpt>
<trkpt lat="31.7907300" lon="35.1136900">
<ele>571.570007</ele>
<time>2021-09-25T18:00:32.956Z</time>
</trkpt>
<trkpt lat="31.7906300" lon="35.1135600">
<ele>572.460022</ele>
<time>2021-09-25T18:00:32.956Z</time>
</trkpt>
<trkpt lat="31.7905600" lon="35.1135100">
<ele>572.970032</ele>
<time>2021-09-25T18:00:32.956Z</time>
</trkpt>
<trkpt lat="31.7905000" lon="35.1133300">
<ele>573.179993</ele>
<time>2021-09-25T18:00:32.956Z</time>
</trkpt>
<trkpt lat="31.7904900" lon="35.1132100">
<ele>572.479980</ele>
<time>2021-09-25T18:00:32.956Z</time>
</trkpt>
<trkpt lat="31.7905100" lon="35.1131200">
<ele>572.020020</ele>
<time>2021-09-25T18:00:32.956Z</time>
</trkpt>
<trkpt lat="31.7906100" lon="35.1128100">
<ele>569.150024</ele>
<time>2021-09-25T18:00:32.956Z</time>
</trkpt>
<trkpt lat="31.7907100" lon="35.1125800">
<ele>568.679993</ele>
<time>2021-09-25T18:00:32.956Z</time>
</trkpt>
<trkpt lat="31.7907600" lon="35.1124300">
<ele>568.190002</ele>
<time>2021-09-25T18:00:32.956Z</time>
</trkpt>
<trkpt lat="31.7907700" lon="35.1123900">
<ele>568.090027</ele>
<time>2021-09-25T18:00:32.956Z</time>
</trkpt>
<trkpt lat="31.7908000" lon="35.1122900">
<ele>567.660034</ele>
<time>2021-09-25T18:00:32.956Z</time>
</trkpt>
<trkpt lat="31.7908000" lon="35.1121900">
<ele>567.719971</ele>
<time>2021-09-25T18:00:32.956Z</time>
</trkpt>
<trkpt lat="31.7908200" lon="35.1120700">
<ele>567.289978</ele>
<time>2021-09-25T18:00:32.956Z</time>
</trkpt>
<trkpt lat="31.7908500" lon="35.1119000">
<ele>566.700012</ele>
<time>2021-09-25T18:00:32.957Z</time>
</trkpt>
<trkpt lat="31.7909500" lon="35.1116700">
<ele>564.899963</ele>
<time>2021-09-25T18:00:32.957Z</time>
</trkpt>
<trkpt lat="31.7911300" lon="35.1112600">
<ele>563.730042</ele>
<time>2021-09-25T18:00:32.957Z</time>
</trkpt>
<trkpt lat="31.7912900" lon="35.1109000">
<ele>562.690002</ele>
<time>2021-09-25T18:00:32.957Z</time>
</trkpt>
<trkpt lat="31.7915300" lon="35.1104800">
<ele>563.830017</ele>
<time>2021-09-25T18:00:32.957Z</time>
</trkpt>
<trkpt lat="31.7917000" lon="35.1102500">
<ele>564.989990</ele>
<time>2021-09-25T18:00:32.957Z</time>
</trkpt>
<trkpt lat="31.7918300" lon="35.1101100">
<ele>565.330017</ele>
<time>2021-09-25T18:00:32.957Z</time>
</trkpt>
<trkpt lat="31.7921600" lon="35.1098400">
<ele>562.140015</ele>
<time>2021-09-25T18:00:32.957Z</time>
</trkpt>
<trkpt lat="31.7924900" lon="35.1095100">
<ele>560.539978</ele>
<time>2021-09-25T18:00:32.957Z</time>
</trkpt>
<trkpt lat="31.7927500" lon="35.1092100">
<ele>561.650024</ele>
<time>2021-09-25T18:00:32.957Z</time>
</trkpt>
<trkpt lat="31.7929800" lon="35.1088800">
<ele>558.550049</ele>
<time>2021-09-25T18:00:32.957Z</time>
</trkpt>
<trkpt lat="31.7931700" lon="35.1086700">
<ele>557.679993</ele>
<time>2021-09-25T18:00:32.957Z</time>
</trkpt>
<trkpt lat="31.7932500" lon="35.1085400">
<ele>557.630005</ele>
<time>2021-09-25T18:00:32.958Z</time>
</trkpt>
<trkpt lat="31.7933000" lon="35.1084200">
<ele>557.890015</ele>
<time>2021-09-25T18:00:32.958Z</time>
</trkpt>
<trkpt lat="31.7933100" lon="35.1083400">
<ele>558.140015</ele>
<time>2021-09-25T18:00:32.958Z</time>
</trkpt>
<trkpt lat="31.7932900" lon="35.1081700">
<ele>558.720032</ele>
<time>2021-09-25T18:00:32.958Z</time>
</trkpt>
<trkpt lat="31.7932200" lon="35.1080300">
<ele>559.000000</ele>
<time>2021-09-25T18:00:32.958Z</time>
</trkpt>
<trkpt lat="31.7932200" lon="35.1080300">
<ele>559.000000</ele>
<time>2021-09-25T18:00:32.958Z</time>
</trkpt>
<trkpt lat="31.7932200" lon="35.1080300">
<ele>559.000000</ele>
<time>2021-09-25T18:00:32.958Z</time>
</trkpt>
<trkpt lat="31.7930900" lon="35.1077600">
<ele>558.940002</ele>
<time>2021-09-25T18:00:32.958Z</time>
</trkpt>
<trkpt lat="31.7930300" lon="35.1076500">
<ele>558.729980</ele>
<time>2021-09-25T18:00:32.958Z</time>
</trkpt>
<trkpt lat="31.7929500" lon="35.1075400">
<ele>558.630005</ele>
<time>2021-09-25T18:00:32.958Z</time>
</trkpt>
<trkpt lat="31.7928500" lon="35.1073400">
<ele>556.739990</ele>
<time>2021-09-25T18:00:32.958Z</time>
</trkpt>
<trkpt lat="31.7927000" lon="35.1069100">
<ele>552.330017</ele>
<time>2021-09-25T18:00:32.958Z</time>
</trkpt>
<trkpt lat="31.7925200" lon="35.1063200">
<ele>548.750000</ele>
<time>2021-09-25T18:00:32.958Z</time>
</trkpt>
<trkpt lat="31.7924700" lon="35.1060600">
<ele>548.140015</ele>
<time>2021-09-25T18:00:32.959Z</time>
</trkpt>
<trkpt lat="31.7924000" lon="35.1051800">
<ele>548.849976</ele>
<time>2021-09-25T18:00:32.959Z</time>
</trkpt>
<trkpt lat="31.7924100" lon="35.1048600">
<ele>548.630005</ele>
<time>2021-09-25T18:00:32.959Z</time>
</trkpt>
<trkpt lat="31.7925000" lon="35.1041900">
<ele>547.919983</ele>
<time>2021-09-25T18:00:32.959Z</time>
</trkpt>
<trkpt lat="31.7925000" lon="35.1040100">
<ele>548.000000</ele>
<time>2021-09-25T18:00:32.959Z</time>
</trkpt>
<trkpt lat="31.7924900" lon="35.1038100">
<ele>547.590027</ele>
<time>2021-09-25T18:00:32.959Z</time>
</trkpt>
<trkpt lat="31.7924900" lon="35.1035700">
<ele>545.890015</ele>
<time>2021-09-25T18:00:32.959Z</time>
</trkpt>
<trkpt lat="31.7924900" lon="35.1034600">
<ele>545.109985</ele>
<time>2021-09-25T18:00:32.959Z</time>
</trkpt>
<trkpt lat="31.7924600" lon="35.1031000">
<ele>544.500000</ele>
<time>2021-09-25T18:00:32.959Z</time>
</trkpt>
<trkpt lat="31.7924400" lon="35.1029900">
<ele>544.779968</ele>
<time>2021-09-25T18:00:32.959Z</time>
</trkpt>
<trkpt lat="31.7922400" lon="35.1024200">
<ele>546.890015</ele>
<time>2021-09-25T18:00:32.959Z</time>
</trkpt>
<trkpt lat="31.7921800" lon="35.1022800">
<ele>547.410034</ele>
<time>2021-09-25T18:00:32.959Z</time>
</trkpt>
<trkpt lat="31.7920300" lon="35.1020700">
<ele>548.049988</ele>
<time>2021-09-25T18:00:32.959Z</time>
</trkpt>
<trkpt lat="31.7919500" lon="35.1019600">
<ele>547.970032</ele>
<time>2021-09-25T18:00:32.959Z</time>
</trkpt>
<trkpt lat="31.7913500" lon="35.1012700">
<ele>550.109985</ele>
<time>2021-09-25T18:00:32.959Z</time>
</trkpt>
<trkpt lat="31.7910100" lon="35.1009600">
<ele>552.500000</ele>
<time>2021-09-25T18:00:32.959Z</time>
</trkpt>
<trkpt lat="31.7908800" lon="35.1008300">
<ele>551.929993</ele>
<time>2021-09-25T18:00:32.959Z</time>
</trkpt>
<trkpt lat="31.7907700" lon="35.1007100">
<ele>549.160034</ele>
<time>2021-09-25T18:00:32.959Z</time>
</trkpt>
<trkpt lat="31.7906600" lon="35.1005500">
<ele>547.219971</ele>
<time>2021-09-25T18:00:32.960Z</time>
</trkpt>
<trkpt lat="31.7904900" lon="35.1003900">
<ele>547.039978</ele>
<time>2021-09-25T18:00:32.960Z</time>
</trkpt>
<trkpt lat="31.7904000" lon="35.1002800">
<ele>546.580017</ele>
<time>2021-09-25T18:00:32.960Z</time>
</trkpt>
<trkpt lat="31.7903200" lon="35.1001600">
<ele>545.279968</ele>
<time>2021-09-25T18:00:32.960Z</time>
</trkpt>
<trkpt lat="31.7901000" lon="35.0996900">
<ele>542.130005</ele>
<time>2021-09-25T18:00:32.960Z</time>
</trkpt>
<trkpt lat="31.7900500" lon="35.0995400">
<ele>541.559998</ele>
<time>2021-09-25T18:00:32.960Z</time>
</trkpt>
<trkpt lat="31.7900400" lon="35.0991300">
<ele>538.040039</ele>
<time>2021-09-25T18:00:32.960Z</time>
</trkpt>
<trkpt lat="31.7900700" lon="35.0988300">
<ele>536.440002</ele>
<time>2021-09-25T18:00:32.960Z</time>
</trkpt>
<trkpt lat="31.7902600" lon="35.0976200">
<ele>535.179993</ele>
<time>2021-09-25T18:00:32.960Z</time>
</trkpt>
<trkpt lat="31.7903800" lon="35.0971200">
<ele>533.869995</ele>
<time>2021-09-25T18:00:32.960Z</time>
</trkpt>
<trkpt lat="31.7903900" lon="35.0969800">
<ele>534.159973</ele>
<time>2021-09-25T18:00:32.960Z</time>
</trkpt>
<trkpt lat="31.7903800" lon="35.0968200">
<ele>534.100037</ele>
<time>2021-09-25T18:00:32.960Z</time>
</trkpt>
<trkpt lat="31.7904100" lon="35.0966000">
<ele>533.710022</ele>
<time>2021-09-25T18:00:32.960Z</time>
</trkpt>
<trkpt lat="31.7906900" lon="35.0958900">
<ele>526.260010</ele>
<time>2021-09-25T18:00:32.960Z</time>
</trkpt>
<trkpt lat="31.7907700" lon="35.0957400">
<ele>525.609985</ele>
<time>2021-09-25T18:00:32.960Z</time>
</trkpt>
<trkpt lat="31.7909200" lon="35.0956300">
<ele>525.679993</ele>
<time>2021-09-25T18:00:32.960Z</time>
</trkpt>
<trkpt lat="31.7911400" lon="35.0954100">
<ele>524.309998</ele>
<time>2021-09-25T18:00:32.960Z</time>
</trkpt>
<trkpt lat="31.7913100" lon="35.0952800">
<ele>520.900024</ele>
<time>2021-09-25T18:00:32.960Z</time>
</trkpt>
<trkpt lat="31.7914500" lon="35.0952100">
<ele>521.549988</ele>
<time>2021-09-25T18:00:32.960Z</time>
</trkpt>
<trkpt lat="31.7919500" lon="35.0951000">
<ele>525.790039</ele>
<time>2021-09-25T18:00:32.960Z</time>
</trkpt>
<trkpt lat="31.7920600" lon="35.0951300">
<ele>526.849976</ele>
<time>2021-09-25T18:00:32.960Z</time>
</trkpt>
<trkpt lat="31.7922500" lon="35.0952200">
<ele>527.299988</ele>
<time>2021-09-25T18:00:32.960Z</time>
</trkpt>
<trkpt lat="31.7935800" lon="35.0955000">
<ele>519.669983</ele>
<time>2021-09-25T18:00:32.960Z</time>
</trkpt>
<trkpt lat="31.7940100" lon="35.0955600">
<ele>517.119995</ele>
<time>2021-09-25T18:00:32.960Z</time>
</trkpt>
<trkpt lat="31.7942400" lon="35.0955400">
<ele>516.020020</ele>
<time>2021-09-25T18:00:32.960Z</time>
</trkpt>
<trkpt lat="31.7944000" lon="35.0954900">
<ele>514.630005</ele>
<time>2021-09-25T18:00:32.960Z</time>
</trkpt>
<trkpt lat="31.7944600" lon="35.0954700">
<ele>515.080017</ele>
<time>2021-09-25T18:00:32.961Z</time>
</trkpt>
<trkpt lat="31.7945500" lon="35.0954300">
<ele>518.179993</ele>
<time>2021-09-25T18:00:32.961Z</time>
</trkpt>
<trkpt lat="31.7947800" lon="35.0950800">
<ele>517.140015</ele>
<time>2021-09-25T18:00:32.961Z</time>
</trkpt>
<trkpt lat="31.7948900" lon="35.0949600">
<ele>515.700012</ele>
<time>2021-09-25T18:00:32.961Z</time>
</trkpt>
<trkpt lat="31.7952600" lon="35.0946200">
<ele>513.649963</ele>
<time>2021-09-25T18:00:32.961Z</time>
</trkpt>
<trkpt lat="31.7953100" lon="35.0945600">
<ele>514.239990</ele>
<time>2021-09-25T18:00:32.961Z</time>
</trkpt>
<trkpt lat="31.7953800" lon="35.0944300">
<ele>515.450012</ele>
<time>2021-09-25T18:00:32.961Z</time>
</trkpt>
<trkpt lat="31.7954700" lon="35.0941700">
<ele>515.019958</ele>
<time>2021-09-25T18:00:32.961Z</time>
</trkpt>
<trkpt lat="31.7955100" lon="35.0939400">
<ele>516.899963</ele>
<time>2021-09-25T18:00:32.961Z</time>
</trkpt>
<trkpt lat="31.7955500" lon="35.0933300">
<ele>520.169983</ele>
<time>2021-09-25T18:00:32.961Z</time>
</trkpt>
<trkpt lat="31.7955200" lon="35.0930400">
<ele>521.900024</ele>
<time>2021-09-25T18:00:32.961Z</time>
</trkpt>
<trkpt lat="31.7954900" lon="35.0929000">
<ele>523.440002</ele>
<time>2021-09-25T18:00:32.961Z</time>
</trkpt>
<trkpt lat="31.7954500" lon="35.0927400">
<ele>524.239990</ele>
<time>2021-09-25T18:00:32.961Z</time>
</trkpt>
<trkpt lat="31.7953200" lon="35.0924800">
<ele>523.789978</ele>
<time>2021-09-25T18:00:32.961Z</time>
</trkpt>
<trkpt lat="31.7952700" lon="35.0922100">
<ele>523.080017</ele>
<time>2021-09-25T18:00:32.961Z</time>
</trkpt>
<trkpt lat="31.7951700" lon="35.0919300">
<ele>523.780029</ele>
<time>2021-09-25T18:00:32.961Z</time>
</trkpt>
<trkpt lat="31.7951500" lon="35.0918700">
<ele>523.839966</ele>
<time>2021-09-25T18:00:32.961Z</time>
</trkpt>
<trkpt lat="31.7951000" lon="35.0915600">
<ele>523.360046</ele>
<time>2021-09-25T18:00:32.961Z</time>
</trkpt>
<trkpt lat="31.7949300" lon="35.0911600">
<ele>522.410034</ele>
<time>2021-09-25T18:00:32.961Z</time>
</trkpt>
<trkpt lat="31.7949000" lon="35.0910500">
<ele>522.280029</ele>
<time>2021-09-25T18:00:32.961Z</time>
</trkpt>
<trkpt lat="31.7947700" lon="35.0905000">
<ele>522.320007</ele>
<time>2021-09-25T18:00:32.961Z</time>
</trkpt>
<trkpt lat="31.7946900" lon="35.0900300">
<ele>519.099976</ele>
<time>2021-09-25T18:00:32.961Z</time>
</trkpt>
<trkpt lat="31.7946300" lon="35.0894000">
<ele>519.049988</ele>
<time>2021-09-25T18:00:32.961Z</time>
</trkpt>
<trkpt lat="31.7946400" lon="35.0891300">
<ele>519.260010</ele>
<time>2021-09-25T18:00:32.961Z</time>
</trkpt>
<trkpt lat="31.7946300" lon="35.0889900">
<ele>519.119995</ele>
<time>2021-09-25T18:00:32.961Z</time>
</trkpt>
<trkpt lat="31.7946600" lon="35.0873800">
<ele>514.010010</ele>
<time>2021-09-25T18:00:32.961Z</time>
</trkpt>
<trkpt lat="31.7947100" lon="35.0869900">
<ele>513.760010</ele>
<time>2021-09-25T18:00:32.961Z</time>
</trkpt>
<trkpt lat="31.7948000" lon="35.0863600">
<ele>513.980042</ele>
<time>2021-09-25T18:00:32.962Z</time>
</trkpt>
<trkpt lat="31.7948400" lon="35.0862000">
<ele>512.859985</ele>
<time>2021-09-25T18:00:32.962Z</time>
</trkpt>
<trkpt lat="31.7948600" lon="35.0860700">
<ele>512.330017</ele>
<time>2021-09-25T18:00:32.962Z</time>
</trkpt>
<trkpt lat="31.7948500" lon="35.0859800">
<ele>511.869995</ele>
<time>2021-09-25T18:00:32.962Z</time>
</trkpt>
<trkpt lat="31.7949100" lon="35.0858800">
<ele>512.260010</ele>
<time>2021-09-25T18:00:32.962Z</time>
</trkpt>
<trkpt lat="31.7950900" lon="35.0854100">
<ele>509.089996</ele>
<time>2021-09-25T18:00:32.962Z</time>
</trkpt>
<trkpt lat="31.7951300" lon="35.0852600">
<ele>507.959991</ele>
<time>2021-09-25T18:00:32.962Z</time>
</trkpt>
<trkpt lat="31.7952000" lon="35.0851000">
<ele>508.100006</ele>
<time>2021-09-25T18:00:32.962Z</time>
</trkpt>
<trkpt lat="31.7952800" lon="35.0849600">
<ele>508.760010</ele>
<time>2021-09-25T18:00:32.962Z</time>
</trkpt>
<trkpt lat="31.7954300" lon="35.0847400">
<ele>510.929993</ele>
<time>2021-09-25T18:00:32.962Z</time>
</trkpt>
<trkpt lat="31.7957700" lon="35.0843600">
<ele>517.239990</ele>
<time>2021-09-25T18:00:32.962Z</time>
</trkpt>
<trkpt lat="31.7958800" lon="35.0842200">
<ele>518.789978</ele>
<time>2021-09-25T18:00:32.962Z</time>
</trkpt>
<trkpt lat="31.7959700" lon="35.0840500">
<ele>519.679993</ele>
<time>2021-09-25T18:00:32.962Z</time>
</trkpt>
<trkpt lat="31.7959900" lon="35.0839300">
<ele>520.169983</ele>
<time>2021-09-25T18:00:32.962Z</time>
</trkpt>
<trkpt lat="31.7960400" lon="35.0835800">
<ele>519.070007</ele>
<time>2021-09-25T18:00:32.962Z</time>
</trkpt>
<trkpt lat="31.7960400" lon="35.0835800">
<ele>519.070007</ele>
<time>2021-09-25T18:00:32.962Z</time>
</trkpt>
<trkpt lat="31.7960400" lon="35.0835800">
<ele>519.070007</ele>
<time>2021-09-25T18:00:32.962Z</time>
</trkpt>
<trkpt lat="31.7960800" lon="35.0832800">
<ele>517.869995</ele>
<time>2021-09-25T18:00:32.962Z</time>
</trkpt>
<trkpt lat="31.7960800" lon="35.0829700">
<ele>518.320007</ele>
<time>2021-09-25T18:00:32.962Z</time>
</trkpt>
<trkpt lat="31.7961000" lon="35.0827300">
<ele>520.530029</ele>
<time>2021-09-25T18:00:32.962Z</time>
</trkpt>
<trkpt lat="31.7960800" lon="35.0824100">
<ele>524.919983</ele>
<time>2021-09-25T18:00:32.962Z</time>
</trkpt>
<trkpt lat="31.7961100" lon="35.0821200">
<ele>528.719971</ele>
<time>2021-09-25T18:00:32.962Z</time>
</trkpt>
<trkpt lat="31.7963300" lon="35.0812000">
<ele>526.760010</ele>
<time>2021-09-25T18:00:32.962Z</time>
</trkpt>
<trkpt lat="31.7963900" lon="35.0810500">
<ele>528.029968</ele>
<time>2021-09-25T18:00:32.963Z</time>
</trkpt>
<trkpt lat="31.7965600" lon="35.0807600">
<ele>532.489990</ele>
<time>2021-09-25T18:00:32.963Z</time>
</trkpt>
<trkpt lat="31.7965900" lon="35.0806300">
<ele>534.539978</ele>
<time>2021-09-25T18:00:32.963Z</time>
</trkpt>
<trkpt lat="31.7965900" lon="35.0804900">
<ele>536.349976</ele>
<time>2021-09-25T18:00:32.963Z</time>
</trkpt>
<trkpt lat="31.7965600" lon="35.0802000">
<ele>540.480042</ele>
<time>2021-09-25T18:00:32.963Z</time>
</trkpt>
<trkpt lat="31.7965900" lon="35.0797000">
<ele>550.419983</ele>
<time>2021-09-25T18:00:32.963Z</time>
</trkpt>
<trkpt lat="31.7965700" lon="35.0795000">
<ele>553.010010</ele>
<time>2021-09-25T18:00:32.963Z</time>
</trkpt>
<trkpt lat="31.7964400" lon="35.0788000">
<ele>554.429993</ele>
<time>2021-09-25T18:00:32.963Z</time>
</trkpt>
<trkpt lat="31.7963500" lon="35.0786500">
<ele>554.659973</ele>
<time>2021-09-25T18:00:32.963Z</time>
</trkpt>
<trkpt lat="31.7962500" lon="35.0785600">
<ele>556.010010</ele>
<time>2021-09-25T18:00:32.963Z</time>
</trkpt>
<trkpt lat="31.7958500" lon="35.0782500">
<ele>562.130005</ele>
<time>2021-09-25T18:00:32.963Z</time>
</trkpt>
<trkpt lat="31.7957500" lon="35.0781900">
<ele>562.760010</ele>
<time>2021-09-25T18:00:32.963Z</time>
</trkpt>
<trkpt lat="31.7956400" lon="35.0781600">
<ele>562.799988</ele>
<time>2021-09-25T18:00:32.963Z</time>
</trkpt>
<trkpt lat="31.7964900" lon="35.0782900">
<ele>564.679993</ele>
<time>2021-09-25T18:00:32.963Z</time>
</trkpt>
<trkpt lat="31.7967900" lon="35.0783200">
<ele>568.679993</ele>
<time>2021-09-25T18:00:32.963Z</time>
</trkpt>
<trkpt lat="31.7969000" lon="35.0784700">
<ele>568.650024</ele>
<time>2021-09-25T18:00:32.963Z</time>
</trkpt>
<trkpt lat="31.7969600" lon="35.0789200">
<ele>564.320007</ele>
<time>2021-09-25T18:00:32.963Z</time>
</trkpt>
<trkpt lat="31.7970500" lon="35.0791900">
<ele>564.679993</ele>
<time>2021-09-25T18:00:32.963Z</time>
</trkpt>
<trkpt lat="31.7971200" lon="35.0794100">
<ele>564.090027</ele>
<time>2021-09-25T18:00:32.963Z</time>
</trkpt>
<trkpt lat="31.7973600" lon="35.0799000">
<ele>566.830017</ele>
<time>2021-09-25T18:00:32.963Z</time>
</trkpt>
<trkpt lat="31.7975900" lon="35.0803300">
<ele>571.369995</ele>
<time>2021-09-25T18:00:32.963Z</time>
</trkpt>
<trkpt lat="31.7976400" lon="35.0804400">
<ele>571.940002</ele>
<time>2021-09-25T18:00:32.963Z</time>
</trkpt>
<trkpt lat="31.7976400" lon="35.0803700">
<ele>572.190002</ele>
<time>2021-09-25T18:00:32.963Z</time>
</trkpt>
<trkpt lat="31.7976400" lon="35.0802700">
<ele>572.580017</ele>
<time>2021-09-25T18:00:32.963Z</time>
</trkpt>
<trkpt lat="31.7976100" lon="35.0801300">
<ele>572.820007</ele>
<time>2021-09-25T18:00:32.963Z</time>
</trkpt>
<trkpt lat="31.7975500" lon="35.0799400">
<ele>571.950012</ele>
<time>2021-09-25T18:00:32.963Z</time>
</trkpt>
<trkpt lat="31.7975000" lon="35.0797800">
<ele>570.790039</ele>
<time>2021-09-25T18:00:32.963Z</time>
</trkpt>
<trkpt lat="31.7974600" lon="35.0796200">
<ele>571.669983</ele>
<time>2021-09-25T18:00:32.963Z</time>
</trkpt>
<trkpt lat="31.7974500" lon="35.0794300">
<ele>574.219971</ele>
<time>2021-09-25T18:00:32.964Z</time>
</trkpt>
<trkpt lat="31.7974500" lon="35.0792700">
<ele>574.429993</ele>
<time>2021-09-25T18:00:32.964Z</time>
</trkpt>
<trkpt lat="31.7974500" lon="35.0791300">
<ele>574.979980</ele>
<time>2021-09-25T18:00:32.964Z</time>
</trkpt>
<trkpt lat="31.7974400" lon="35.0790300">
<ele>575.849976</ele>
<time>2021-09-25T18:00:32.964Z</time>
</trkpt>
<trkpt lat="31.7974100" lon="35.0789100">
<ele>576.480042</ele>
<time>2021-09-25T18:00:32.964Z</time>
</trkpt>
<trkpt lat="31.7972700" lon="35.0781200">
<ele>581.549988</ele>
<time>2021-09-25T18:00:32.964Z</time>
</trkpt>
<trkpt lat="31.7972100" lon="35.0777700">
<ele>585.229980</ele>
<time>2021-09-25T18:00:32.964Z</time>
</trkpt>
<trkpt lat="31.7971700" lon="35.0776000">
<ele>589.059998</ele>
<time>2021-09-25T18:00:32.964Z</time>
</trkpt>
<trkpt lat="31.7971000" lon="35.0774600">
<ele>593.500000</ele>
<time>2021-09-25T18:00:32.964Z</time>
</trkpt>
<trkpt lat="31.7970100" lon="35.0773100">
<ele>598.690002</ele>
<time>2021-09-25T18:00:32.964Z</time>
</trkpt>
<trkpt lat="31.7969400" lon="35.0772300">
<ele>601.750000</ele>
<time>2021-09-25T18:00:32.964Z</time>
</trkpt>
<trkpt lat="31.7968200" lon="35.0771400">
<ele>601.440002</ele>
<time>2021-09-25T18:00:32.964Z</time>
</trkpt>
<trkpt lat="31.7966200" lon="35.0770600">
<ele>601.220032</ele>
<time>2021-09-25T18:00:32.964Z</time>
</trkpt>
<trkpt lat="31.7963600" lon="35.0769500">
<ele>598.440002</ele>
<time>2021-09-25T18:00:32.964Z</time>
</trkpt>
<trkpt lat="31.7963100" lon="35.0769200">
<ele>598.100037</ele>
<time>2021-09-25T18:00:32.964Z</time>
</trkpt>
<trkpt lat="31.7962700" lon="35.0768800">
<ele>597.880005</ele>
<time>2021-09-25T18:00:32.964Z</time>
</trkpt>
<trkpt lat="31.7962400" lon="35.0768400">
<ele>597.779968</ele>
<time>2021-09-25T18:00:32.964Z</time>
</trkpt>
<trkpt lat="31.7962200" lon="35.0767700">
<ele>598.070007</ele>
<time>2021-09-25T18:00:32.964Z</time>
</trkpt>
<trkpt lat="31.7962200" lon="35.0767700">
<ele>598.070007</ele>
<time>2021-09-25T18:00:32.964Z</time>
</trkpt>
<trkpt lat="31.7962200" lon="35.0767700">
<ele>598.070007</ele>
<time>2021-09-25T18:00:32.964Z</time>
</trkpt>
<trkpt lat="31.7962200" lon="35.0767700">
<ele>598.070007</ele>
<time>2021-09-25T18:00:32.964Z</time>
</trkpt>
<trkpt lat="31.7961900" lon="35.0766300">
<ele>598.890015</ele>
<time>2021-09-25T18:00:32.964Z</time>
</trkpt>
<trkpt lat="31.7963100" lon="35.0766200">
<ele>601.320007</ele>
<time>2021-09-25T18:00:32.964Z</time>
</trkpt>
<trkpt lat="31.7966400" lon="35.0765600">
<ele>607.609985</ele>
<time>2021-09-25T18:00:32.964Z</time>
</trkpt>
<trkpt lat="31.7967500" lon="35.0765500">
<ele>607.869995</ele>
<time>2021-09-25T18:00:32.964Z</time>
</trkpt>
<trkpt lat="31.7968300" lon="35.0765500">
<ele>607.750000</ele>
<time>2021-09-25T18:00:32.964Z</time>
</trkpt>
<trkpt lat="31.7972000" lon="35.0765400">
<ele>606.960022</ele>
<time>2021-09-25T18:00:32.964Z</time>
</trkpt>
<trkpt lat="31.7973900" lon="35.0765100">
<ele>606.859985</ele>
<time>2021-09-25T18:00:32.965Z</time>
</trkpt>
<trkpt lat="31.7974500" lon="35.0765000">
<ele>606.869995</ele>
<time>2021-09-25T18:00:32.965Z</time>
</trkpt>
<trkpt lat="31.7975600" lon="35.0764700">
<ele>608.570007</ele>
<time>2021-09-25T18:00:32.965Z</time>
</trkpt>
<trkpt lat="31.7976200" lon="35.0764500">
<ele>610.269958</ele>
<time>2021-09-25T18:00:32.965Z</time>
</trkpt>
<trkpt lat="31.7976700" lon="35.0764100">
<ele>612.010010</ele>
<time>2021-09-25T18:00:32.965Z</time>
</trkpt>
<trkpt lat="31.7977100" lon="35.0763700">
<ele>613.330017</ele>
<time>2021-09-25T18:00:32.965Z</time>
</trkpt>
<trkpt lat="31.7977400" lon="35.0763400">
<ele>614.099976</ele>
<time>2021-09-25T18:00:32.965Z</time>
</trkpt>
<trkpt lat="31.7978500" lon="35.0761200">
<ele>616.040039</ele>
<time>2021-09-25T18:00:32.965Z</time>
</trkpt>
<trkpt lat="31.7978200" lon="35.0761000">
<ele>615.529968</ele>
<time>2021-09-25T18:00:32.965Z</time>
</trkpt>
<trkpt lat="31.7977900" lon="35.0760600">
<ele>614.820007</ele>
<time>2021-09-25T18:00:32.965Z</time>
</trkpt>
<trkpt lat="31.7977800" lon="35.0760200">
<ele>614.380005</ele>
<time>2021-09-25T18:00:32.965Z</time>
</trkpt>
<trkpt lat="31.7977700" lon="35.0759800">
<ele>613.929993</ele>
<time>2021-09-25T18:00:32.965Z</time>
</trkpt>
<trkpt lat="31.7977800" lon="35.0759300">
<ele>613.730042</ele>
<time>2021-09-25T18:00:32.965Z</time>
</trkpt>
<trkpt lat="31.7977900" lon="35.0758900">
<ele>613.619995</ele>
<time>2021-09-25T18:00:32.965Z</time>
</trkpt>
<trkpt lat="31.7978100" lon="35.0758500">
<ele>613.690002</ele>
<time>2021-09-25T18:00:32.965Z</time>
</trkpt>
<trkpt lat="31.7978500" lon="35.0758200">
<ele>614.169983</ele>
<time>2021-09-25T18:00:32.965Z</time>
</trkpt>
<trkpt lat="31.7979100" lon="35.0757600">
<ele>614.710022</ele>
<time>2021-09-25T18:00:32.965Z</time>
</trkpt>
<trkpt lat="31.7979500" lon="35.0757000">
<ele>614.960022</ele>
<time>2021-09-25T18:00:32.965Z</time>
</trkpt>
<trkpt lat="31.7979900" lon="35.0755900">
<ele>614.859985</ele>
<time>2021-09-25T18:00:32.965Z</time>
</trkpt>
<trkpt lat="31.7980400" lon="35.0754500">
<ele>616.510010</ele>
<time>2021-09-25T18:00:32.965Z</time>
</trkpt>
<trkpt lat="31.7981200" lon="35.0753900">
<ele>618.539978</ele>
<time>2021-09-25T18:00:32.965Z</time>
</trkpt>
<trkpt lat="31.7981900" lon="35.0753700">
<ele>620.080017</ele>
<time>2021-09-25T18:00:32.965Z</time>
</trkpt>
<trkpt lat="31.7984000" lon="35.0753900">
<ele>623.049988</ele>
<time>2021-09-25T18:00:32.965Z</time>
</trkpt>
<trkpt lat="31.7987400" lon="35.0754500">
<ele>620.330017</ele>
<time>2021-09-25T18:00:32.965Z</time>
</trkpt>
<trkpt lat="31.7989000" lon="35.0755000">
<ele>616.539978</ele>
<time>2021-09-25T18:00:32.965Z</time>
</trkpt>
<trkpt lat="31.7993100" lon="35.0756900">
<ele>607.669983</ele>
<time>2021-09-25T18:00:32.965Z</time>
</trkpt>
<trkpt lat="31.7994100" lon="35.0757400">
<ele>606.200012</ele>
<time>2021-09-25T18:00:32.966Z</time>
</trkpt>
<trkpt lat="31.7995800" lon="35.0758200">
<ele>606.830017</ele>
<time>2021-09-25T18:00:32.966Z</time>
</trkpt>
<trkpt lat="31.8005900" lon="35.0763300">
<ele>607.820007</ele>
<time>2021-09-25T18:00:32.966Z</time>
</trkpt>
<trkpt lat="31.8006300" lon="35.0763500">
<ele>607.429993</ele>
<time>2021-09-25T18:00:32.966Z</time>
</trkpt>
<trkpt lat="31.8006700" lon="35.0763700">
<ele>607.090027</ele>
<time>2021-09-25T18:00:32.966Z</time>
</trkpt>
<trkpt lat="31.8007000" lon="35.0763800">
<ele>606.790039</ele>
<time>2021-09-25T18:00:32.966Z</time>
</trkpt>
<trkpt lat="31.8007200" lon="35.0763900">
<ele>606.650024</ele>
<time>2021-09-25T18:00:32.966Z</time>
</trkpt>
<trkpt lat="31.8007400" lon="35.0763900">
<ele>606.359985</ele>
<time>2021-09-25T18:00:32.966Z</time>
</trkpt>
<trkpt lat="31.8007600" lon="35.0764000">
<ele>606.210022</ele>
<time>2021-09-25T18:00:32.966Z</time>
</trkpt>
<trkpt lat="31.8007800" lon="35.0764000">
<ele>605.919983</ele>
<time>2021-09-25T18:00:32.966Z</time>
</trkpt>
<trkpt lat="31.8008000" lon="35.0764000">
<ele>605.640015</ele>
<time>2021-09-25T18:00:32.966Z</time>
</trkpt>
<trkpt lat="31.8008300" lon="35.0764000">
<ele>605.210022</ele>
<time>2021-09-25T18:00:32.966Z</time>
</trkpt>
<trkpt lat="31.8008500" lon="35.0764000">
<ele>604.979980</ele>
<time>2021-09-25T18:00:32.966Z</time>
</trkpt>
<trkpt lat="31.8008700" lon="35.0763800">
<ele>604.429993</ele>
<time>2021-09-25T18:00:32.966Z</time>
</trkpt>
<trkpt lat="31.8008900" lon="35.0763700">
<ele>603.989990</ele>
<time>2021-09-25T18:00:32.966Z</time>
</trkpt>
<trkpt lat="31.8009100" lon="35.0763600">
<ele>603.540039</ele>
<time>2021-09-25T18:00:32.966Z</time>
</trkpt>
<trkpt lat="31.8009300" lon="35.0763500">
<ele>603.059998</ele>
<time>2021-09-25T18:00:32.966Z</time>
</trkpt>
<trkpt lat="31.8009500" lon="35.0763500">
<ele>602.799988</ele>
<time>2021-09-25T18:00:32.966Z</time>
</trkpt>
<trkpt lat="31.8009700" lon="35.0763500">
<ele>602.549988</ele>
<time>2021-09-25T18:00:32.966Z</time>
</trkpt>
<trkpt lat="31.8009900" lon="35.0763600">
<ele>602.549988</ele>
<time>2021-09-25T18:00:32.966Z</time>
</trkpt>
<trkpt lat="31.8010100" lon="35.0763700">
<ele>602.580017</ele>
<time>2021-09-25T18:00:32.966Z</time>
</trkpt>
<trkpt lat="31.8010300" lon="35.0763800">
<ele>602.630005</ele>
<time>2021-09-25T18:00:32.966Z</time>
</trkpt>
<trkpt lat="31.8010400" lon="35.0764000">
<ele>602.929993</ele>
<time>2021-09-25T18:00:32.966Z</time>
</trkpt>
<trkpt lat="31.8010600" lon="35.0764200">
<ele>603.000000</ele>
<time>2021-09-25T18:00:32.966Z</time>
</trkpt>
<trkpt lat="31.8010700" lon="35.0764400">
<ele>603.179993</ele>
<time>2021-09-25T18:00:32.966Z</time>
</trkpt>
<trkpt lat="31.8010800" lon="35.0764600">
<ele>603.359985</ele>
<time>2021-09-25T18:00:32.966Z</time>
</trkpt>
<trkpt lat="31.8010800" lon="35.0764800">
<ele>603.650024</ele>
<time>2021-09-25T18:00:32.966Z</time>
</trkpt>
<trkpt lat="31.8010800" lon="35.0765100">
<ele>604.080017</ele>
<time>2021-09-25T18:00:32.966Z</time>
</trkpt>
<trkpt lat="31.8010800" lon="35.0765300">
<ele>604.369995</ele>
<time>2021-09-25T18:00:32.966Z</time>
</trkpt>
<trkpt lat="31.8011600" lon="35.0765600">
<ele>604.440002</ele>
<time>2021-09-25T18:00:32.966Z</time>
</trkpt>
<trkpt lat="31.8012300" lon="35.0766300">
<ele>605.729980</ele>
<time>2021-09-25T18:00:32.967Z</time>
</trkpt>
<trkpt lat="31.8012600" lon="35.0766900">
<ele>606.790039</ele>
<time>2021-09-25T18:00:32.967Z</time>
</trkpt>
<trkpt lat="31.8012800" lon="35.0767600">
<ele>607.619995</ele>
<time>2021-09-25T18:00:32.967Z</time>
</trkpt>
<trkpt lat="31.8012800" lon="35.0768100">
<ele>608.160034</ele>
<time>2021-09-25T18:00:32.967Z</time>
</trkpt>
<trkpt lat="31.8012700" lon="35.0768400">
<ele>608.440002</ele>
<time>2021-09-25T18:00:32.967Z</time>
</trkpt>
<trkpt lat="31.8011900" lon="35.0770200">
<ele>609.750000</ele>
<time>2021-09-25T18:00:32.967Z</time>
</trkpt>
<trkpt lat="31.8012800" lon="35.0770600">
<ele>610.190002</ele>
<time>2021-09-25T18:00:32.967Z</time>
</trkpt>
<trkpt lat="31.8014500" lon="35.0771300">
<ele>611.250000</ele>
<time>2021-09-25T18:00:32.967Z</time>
</trkpt>
<trkpt lat="31.8015600" lon="35.0771400">
<ele>612.369995</ele>
<time>2021-09-25T18:00:32.967Z</time>
</trkpt>
<trkpt lat="31.8016200" lon="35.0771200">
<ele>612.820007</ele>
<time>2021-09-25T18:00:32.967Z</time>
</trkpt>
<trkpt lat="31.8016500" lon="35.0770500">
<ele>612.619995</ele>
<time>2021-09-25T18:00:32.967Z</time>
</trkpt>
<trkpt lat="31.8016700" lon="35.0769900">
<ele>612.429993</ele>
<time>2021-09-25T18:00:32.967Z</time>
</trkpt>
<trkpt lat="31.8016900" lon="35.0767400">
<ele>609.599976</ele>
<time>2021-09-25T18:00:32.967Z</time>
</trkpt>
<trkpt lat="31.8016800" lon="35.0766100">
<ele>606.839966</ele>
<time>2021-09-25T18:00:32.967Z</time>
</trkpt>
<trkpt lat="31.8016600" lon="35.0764800">
<ele>603.270020</ele>
<time>2021-09-25T18:00:32.967Z</time>
</trkpt>
<trkpt lat="31.8016700" lon="35.0763600">
<ele>600.219971</ele>
<time>2021-09-25T18:00:32.967Z</time>
</trkpt>
<trkpt lat="31.8017100" lon="35.0762700">
<ele>598.330017</ele>
<time>2021-09-25T18:00:32.967Z</time>
</trkpt>
<trkpt lat="31.8018500" lon="35.0761400">
<ele>597.650024</ele>
<time>2021-09-25T18:00:32.967Z</time>
</trkpt>
<trkpt lat="31.8019000" lon="35.0760700">
<ele>596.830017</ele>
<time>2021-09-25T18:00:32.967Z</time>
</trkpt>
<trkpt lat="31.8019700" lon="35.0759400">
<ele>594.830017</ele>
<time>2021-09-25T18:00:32.967Z</time>
</trkpt>
<trkpt lat="31.8020800" lon="35.0756800">
<ele>588.789978</ele>
<time>2021-09-25T18:00:32.967Z</time>
</trkpt>
<trkpt lat="31.8021200" lon="35.0756300">
<ele>587.520020</ele>
<time>2021-09-25T18:00:32.967Z</time>
</trkpt>
<trkpt lat="31.8021200" lon="35.0756300">
<ele>587.520020</ele>
<time>2021-09-25T18:00:32.967Z</time>
</trkpt>
<trkpt lat="31.8021500" lon="35.0755800">
<ele>585.840027</ele>
<time>2021-09-25T18:00:32.967Z</time>
</trkpt>
<trkpt lat="31.8022900" lon="35.0755000">
<ele>584.790039</ele>
<time>2021-09-25T18:00:32.967Z</time>
</trkpt>
<trkpt lat="31.8024600" lon="35.0753900">
<ele>583.369995</ele>
<time>2021-09-25T18:00:32.967Z</time>
</trkpt>
<trkpt lat="31.8025600" lon="35.0753200">
<ele>581.000000</ele>
<time>2021-09-25T18:00:32.967Z</time>
</trkpt>
<trkpt lat="31.8024900" lon="35.0753000">
<ele>581.419983</ele>
<time>2021-09-25T18:00:32.967Z</time>
</trkpt>
<trkpt lat="31.8021800" lon="35.0752300">
<ele>574.419983</ele>
<time>2021-09-25T18:00:32.967Z</time>
</trkpt>
<trkpt lat="31.8020400" lon="35.0752200">
<ele>571.260010</ele>
<time>2021-09-25T18:00:32.967Z</time>
</trkpt>
<trkpt lat="31.8018300" lon="35.0752900">
<ele>570.559998</ele>
<time>2021-09-25T18:00:32.967Z</time>
</trkpt>
<trkpt lat="31.8016900" lon="35.0754400">
<ele>573.400024</ele>
<time>2021-09-25T18:00:32.968Z</time>
</trkpt>
<trkpt lat="31.8014600" lon="35.0756500">
<ele>576.979980</ele>
<time>2021-09-25T18:00:32.968Z</time>
</trkpt>
<trkpt lat="31.8013600" lon="35.0756900">
<ele>578.219971</ele>
<time>2021-09-25T18:00:32.968Z</time>
</trkpt>
<trkpt lat="31.8013100" lon="35.0756800">
<ele>579.440002</ele>
<time>2021-09-25T18:00:32.968Z</time>
</trkpt>
<trkpt lat="31.8012500" lon="35.0756500">
<ele>580.539978</ele>
<time>2021-09-25T18:00:32.968Z</time>
</trkpt>
<trkpt lat="31.8012100" lon="35.0755100">
<ele>579.359985</ele>
<time>2021-09-25T18:00:32.968Z</time>
</trkpt>
<trkpt lat="31.8011900" lon="35.0753700">
<ele>578.630005</ele>
<time>2021-09-25T18:00:32.968Z</time>
</trkpt>
<trkpt lat="31.8011700" lon="35.0752300">
<ele>577.820007</ele>
<time>2021-09-25T18:00:32.968Z</time>
</trkpt>
<trkpt lat="31.8011500" lon="35.0748900">
<ele>575.729980</ele>
<time>2021-09-25T18:00:32.968Z</time>
</trkpt>
<trkpt lat="31.8012200" lon="35.0746400">
<ele>574.519958</ele>
<time>2021-09-25T18:00:32.968Z</time>
</trkpt>
<trkpt lat="31.8015900" lon="35.0733800">
<ele>577.399963</ele>
<time>2021-09-25T18:00:32.968Z</time>
</trkpt>
<trkpt lat="31.8016500" lon="35.0732300">
<ele>577.470032</ele>
<time>2021-09-25T18:00:32.968Z</time>
</trkpt>
<trkpt lat="31.8018200" lon="35.0728000">
<ele>577.529968</ele>
<time>2021-09-25T18:00:32.968Z</time>
</trkpt>
<trkpt lat="31.8022500" lon="35.0721500">
<ele>582.770020</ele>
<time>2021-09-25T18:00:32.968Z</time>
</trkpt>
<trkpt lat="31.8024000" lon="35.0719100">
<ele>582.470032</ele>
<time>2021-09-25T18:00:32.968Z</time>
</trkpt>
<trkpt lat="31.8023900" lon="35.0718500">
<ele>582.130005</ele>
<time>2021-09-25T18:00:32.968Z</time>
</trkpt>
<trkpt lat="31.8023600" lon="35.0717200">
<ele>581.280029</ele>
<time>2021-09-25T18:00:32.968Z</time>
</trkpt>
<trkpt lat="31.8023400" lon="35.0715900">
<ele>580.020020</ele>
<time>2021-09-25T18:00:32.968Z</time>
</trkpt>
<trkpt lat="31.8023500" lon="35.0714400">
<ele>578.469971</ele>
<time>2021-09-25T18:00:32.968Z</time>
</trkpt>
<trkpt lat="31.8024600" lon="35.0712000">
<ele>575.889954</ele>
<time>2021-09-25T18:00:32.968Z</time>
</trkpt>
<trkpt lat="31.8026300" lon="35.0709000">
<ele>575.820007</ele>
<time>2021-09-25T18:00:32.968Z</time>
</trkpt>
<trkpt lat="31.8034200" lon="35.0696500">
<ele>578.419983</ele>
<time>2021-09-25T18:00:32.968Z</time>
</trkpt>
<trkpt lat="31.8037900" lon="35.0691500">
<ele>579.950012</ele>
<time>2021-09-25T18:00:32.968Z</time>
</trkpt>
<trkpt lat="31.8039400" lon="35.0689100">
<ele>581.349976</ele>
<time>2021-09-25T18:00:32.968Z</time>
</trkpt>
<trkpt lat="31.8040600" lon="35.0686600">
<ele>582.559998</ele>
<time>2021-09-25T18:00:32.968Z</time>
</trkpt>
<trkpt lat="31.8042700" lon="35.0681300">
<ele>584.589966</ele>
<time>2021-09-25T18:00:32.968Z</time>
</trkpt>
<trkpt lat="31.8042900" lon="35.0678900">
<ele>585.369995</ele>
<time>2021-09-25T18:00:32.968Z</time>
</trkpt>
<trkpt lat="31.8042900" lon="35.0675500">
<ele>584.500000</ele>
<time>2021-09-25T18:00:32.968Z</time>
</trkpt>
<trkpt lat="31.8043000" lon="35.0673800">
<ele>582.880005</ele>
<time>2021-09-25T18:00:32.968Z</time>
</trkpt>
<trkpt lat="31.8043400" lon="35.0672500">
<ele>582.080017</ele>
<time>2021-09-25T18:00:32.968Z</time>
</trkpt>
<trkpt lat="31.8044300" lon="35.0670800">
<ele>580.669983</ele>
<time>2021-09-25T18:00:32.968Z</time>
</trkpt>
<trkpt lat="31.8046300" lon="35.0668400">
<ele>580.500000</ele>
<time>2021-09-25T18:00:32.968Z</time>
</trkpt>
<trkpt lat="31.8047200" lon="35.0667100">
<ele>580.580017</ele>
<time>2021-09-25T18:00:32.969Z</time>
</trkpt>
<trkpt lat="31.8047700" lon="35.0666100">
<ele>580.970032</ele>
<time>2021-09-25T18:00:32.969Z</time>
</trkpt>
<trkpt lat="31.8048000" lon="35.0665100">
<ele>581.110046</ele>
<time>2021-09-25T18:00:32.969Z</time>
</trkpt>
<trkpt lat="31.8048400" lon="35.0661500">
<ele>578.580017</ele>
<time>2021-09-25T18:00:32.969Z</time>
</trkpt>
<trkpt lat="31.8048800" lon="35.0659700">
<ele>576.080017</ele>
<time>2021-09-25T18:00:32.969Z</time>
</trkpt>
<trkpt lat="31.8049800" lon="35.0657300">
<ele>573.309998</ele>
<time>2021-09-25T18:00:32.969Z</time>
</trkpt>
<trkpt lat="31.8052000" lon="35.0653900">
<ele>568.000000</ele>
<time>2021-09-25T18:00:32.969Z</time>
</trkpt>
<trkpt lat="31.8052600" lon="35.0653100">
<ele>567.289978</ele>
<time>2021-09-25T18:00:32.969Z</time>
</trkpt>
<trkpt lat="31.8052600" lon="35.0653100">
<ele>567.289978</ele>
<time>2021-09-25T18:00:32.969Z</time>
</trkpt>
<trkpt lat="31.8052600" lon="35.0653100">
<ele>567.289978</ele>
<time>2021-09-25T18:00:32.969Z</time>
</trkpt>
<trkpt lat="31.8052600" lon="35.0653100">
<ele>567.289978</ele>
<time>2021-09-25T18:00:32.969Z</time>
</trkpt>
<trkpt lat="31.8054500" lon="35.0650600">
<ele>567.369995</ele>
<time>2021-09-25T18:00:32.969Z</time>
</trkpt>
<trkpt lat="31.8062700" lon="35.0637700">
<ele>566.479980</ele>
<time>2021-09-25T18:00:32.969Z</time>
</trkpt>
<trkpt lat="31.8066000" lon="35.0632700">
<ele>566.590027</ele>
<time>2021-09-25T18:00:32.969Z</time>
</trkpt>
<trkpt lat="31.8067600" lon="35.0630700">
<ele>566.179993</ele>
<time>2021-09-25T18:00:32.969Z</time>
</trkpt>
<trkpt lat="31.8073300" lon="35.0624400">
<ele>565.780029</ele>
<time>2021-09-25T18:00:32.969Z</time>
</trkpt>
<trkpt lat="31.8080400" lon="35.0614700">
<ele>559.989990</ele>
<time>2021-09-25T18:00:32.969Z</time>
</trkpt>
<trkpt lat="31.8081800" lon="35.0612400">
<ele>559.869995</ele>
<time>2021-09-25T18:00:32.969Z</time>
</trkpt>
<trkpt lat="31.8083200" lon="35.0609600">
<ele>561.169983</ele>
<time>2021-09-25T18:00:32.969Z</time>
</trkpt>
<trkpt lat="31.8086000" lon="35.0603600">
<ele>558.000000</ele>
<time>2021-09-25T18:00:32.969Z</time>
</trkpt>
<trkpt lat="31.8087600" lon="35.0598900">
<ele>554.679993</ele>
<time>2021-09-25T18:00:32.969Z</time>
</trkpt>
<trkpt lat="31.8088500" lon="35.0595700">
<ele>552.869995</ele>
<time>2021-09-25T18:00:32.969Z</time>
</trkpt>
<trkpt lat="31.8089200" lon="35.0589300">
<ele>547.809998</ele>
<time>2021-09-25T18:00:32.969Z</time>
</trkpt>
<trkpt lat="31.8089400" lon="35.0585600">
<ele>547.400024</ele>
<time>2021-09-25T18:00:32.969Z</time>
</trkpt>
<trkpt lat="31.8089300" lon="35.0580600">
<ele>548.140015</ele>
<time>2021-09-25T18:00:32.969Z</time>
</trkpt>
<trkpt lat="31.8087400" lon="35.0570900">
<ele>547.150024</ele>
<time>2021-09-25T18:00:32.969Z</time>
</trkpt>
<trkpt lat="31.8086100" lon="35.0565400">
<ele>549.349976</ele>
<time>2021-09-25T18:00:32.969Z</time>
</trkpt>
<trkpt lat="31.8085300" lon="35.0560100">
<ele>552.640015</ele>
<time>2021-09-25T18:00:32.969Z</time>
</trkpt>
<trkpt lat="31.8084700" lon="35.0552900">
<ele>554.419983</ele>
<time>2021-09-25T18:00:32.969Z</time>
</trkpt>
<trkpt lat="31.8084800" lon="35.0547700">
<ele>552.229980</ele>
<time>2021-09-25T18:00:32.969Z</time>
</trkpt>
<trkpt lat="31.8085400" lon="35.0542100">
<ele>551.700012</ele>
<time>2021-09-25T18:00:32.969Z</time>
</trkpt>
<trkpt lat="31.8085400" lon="35.0540100">
<ele>552.030029</ele>
<time>2021-09-25T18:00:32.970Z</time>
</trkpt>
<trkpt lat="31.8085200" lon="35.0538100">
<ele>552.899963</ele>
<time>2021-09-25T18:00:32.970Z</time>
</trkpt>
<trkpt lat="31.8084000" lon="35.0535100">
<ele>554.399963</ele>
<time>2021-09-25T18:00:32.970Z</time>
</trkpt>
<trkpt lat="31.8081100" lon="35.0529000">
<ele>559.119995</ele>
<time>2021-09-25T18:00:32.970Z</time>
</trkpt>
<trkpt lat="31.8079400" lon="35.0526100">
<ele>562.059998</ele>
<time>2021-09-25T18:00:32.970Z</time>
</trkpt>
<trkpt lat="31.8076200" lon="35.0521200">
<ele>564.020020</ele>
<time>2021-09-25T18:00:32.970Z</time>
</trkpt>
<trkpt lat="31.8074800" lon="35.0518500">
<ele>563.559998</ele>
<time>2021-09-25T18:00:32.970Z</time>
</trkpt>
<trkpt lat="31.8074100" lon="35.0517000">
<ele>563.409973</ele>
<time>2021-09-25T18:00:32.970Z</time>
</trkpt>
<trkpt lat="31.8073600" lon="35.0515100">
<ele>563.600037</ele>
<time>2021-09-25T18:00:32.970Z</time>
</trkpt>
<trkpt lat="31.8073000" lon="35.0511000">
<ele>563.619995</ele>
<time>2021-09-25T18:00:32.970Z</time>
</trkpt>
<trkpt lat="31.8073000" lon="35.0509300">
<ele>560.830017</ele>
<time>2021-09-25T18:00:32.970Z</time>
</trkpt>
<trkpt lat="31.8073300" lon="35.0507800">
<ele>559.190002</ele>
<time>2021-09-25T18:00:32.970Z</time>
</trkpt>
<trkpt lat="31.8073600" lon="35.0506700">
<ele>558.030029</ele>
<time>2021-09-25T18:00:32.970Z</time>
</trkpt>
<trkpt lat="31.8074100" lon="35.0505700">
<ele>557.330017</ele>
<time>2021-09-25T18:00:32.970Z</time>
</trkpt>
<trkpt lat="31.8074600" lon="35.0505000">
<ele>557.159973</ele>
<time>2021-09-25T18:00:32.970Z</time>
</trkpt>
<trkpt lat="31.8075700" lon="35.0504100">
<ele>557.269958</ele>
<time>2021-09-25T18:00:32.970Z</time>
</trkpt>
<trkpt lat="31.8077000" lon="35.0503400">
<ele>557.840027</ele>
<time>2021-09-25T18:00:32.970Z</time>
</trkpt>
<trkpt lat="31.8079100" lon="35.0502600">
<ele>558.820007</ele>
<time>2021-09-25T18:00:32.970Z</time>
</trkpt>
<trkpt lat="31.8081500" lon="35.0501900">
<ele>560.020020</ele>
<time>2021-09-25T18:00:32.970Z</time>
</trkpt>
<trkpt lat="31.8084200" lon="35.0500700">
<ele>558.520020</ele>
<time>2021-09-25T18:00:32.970Z</time>
</trkpt>
<trkpt lat="31.8086100" lon="35.0499200">
<ele>558.290039</ele>
<time>2021-09-25T18:00:32.970Z</time>
</trkpt>
<trkpt lat="31.8086000" lon="35.0497600">
<ele>558.789978</ele>
<time>2021-09-25T18:00:32.970Z</time>
</trkpt>
<trkpt lat="31.8085500" lon="35.0496600">
<ele>558.659973</ele>
<time>2021-09-25T18:00:32.970Z</time>
</trkpt>
<trkpt lat="31.8083800" lon="35.0493900">
<ele>559.260010</ele>
<time>2021-09-25T18:00:32.970Z</time>
</trkpt>
<trkpt lat="31.8082700" lon="35.0491500">
<ele>558.659973</ele>
<time>2021-09-25T18:00:32.970Z</time>
</trkpt>
<trkpt lat="31.8081500" lon="35.0488000">
<ele>555.179993</ele>
<time>2021-09-25T18:00:32.970Z</time>
</trkpt>
<trkpt lat="31.8079000" lon="35.0479000">
<ele>545.830017</ele>
<time>2021-09-25T18:00:32.970Z</time>
</trkpt>
<trkpt lat="31.8078400" lon="35.0475800">
<ele>541.500000</ele>
<time>2021-09-25T18:00:32.970Z</time>
</trkpt>
<trkpt lat="31.8078300" lon="35.0474100">
<ele>539.159973</ele>
<time>2021-09-25T18:00:32.970Z</time>
</trkpt>
<trkpt lat="31.8078200" lon="35.0471300">
<ele>536.809998</ele>
<time>2021-09-25T18:00:32.971Z</time>
</trkpt>
<trkpt lat="31.8078500" lon="35.0468000">
<ele>535.250000</ele>
<time>2021-09-25T18:00:32.971Z</time>
</trkpt>
<trkpt lat="31.8079800" lon="35.0461300">
<ele>532.739990</ele>
<time>2021-09-25T18:00:32.971Z</time>
</trkpt>
<trkpt lat="31.8080600" lon="35.0452800">
<ele>527.070007</ele>
<time>2021-09-25T18:00:32.971Z</time>
</trkpt>
<trkpt lat="31.8080600" lon="35.0443000">
<ele>518.950012</ele>
<time>2021-09-25T18:00:32.971Z</time>
</trkpt>
<trkpt lat="31.8081300" lon="35.0433200">
<ele>508.959991</ele>
<time>2021-09-25T18:00:32.971Z</time>
</trkpt>
<trkpt lat="31.8081200" lon="35.0422400">
<ele>497.470001</ele>
<time>2021-09-25T18:00:32.971Z</time>
</trkpt>
<trkpt lat="31.8081500" lon="35.0419300">
<ele>490.600006</ele>
<time>2021-09-25T18:00:32.971Z</time>
</trkpt>
<trkpt lat="31.8081900" lon="35.0418200">
<ele>487.630005</ele>
<time>2021-09-25T18:00:32.971Z</time>
</trkpt>
<trkpt lat="31.8082300" lon="35.0417700">
<ele>486.370026</ele>
<time>2021-09-25T18:00:32.971Z</time>
</trkpt>
<trkpt lat="31.8083500" lon="35.0416900">
<ele>484.640015</ele>
<time>2021-09-25T18:00:32.971Z</time>
</trkpt>
<trkpt lat="31.8085800" lon="35.0416000">
<ele>484.109985</ele>
<time>2021-09-25T18:00:32.971Z</time>
</trkpt>
<trkpt lat="31.8086500" lon="35.0415600">
<ele>484.109985</ele>
<time>2021-09-25T18:00:32.971Z</time>
</trkpt>
<trkpt lat="31.8087200" lon="35.0414700">
<ele>483.220001</ele>
<time>2021-09-25T18:00:32.971Z</time>
</trkpt>
<trkpt lat="31.8091400" lon="35.0409300">
<ele>478.820007</ele>
<time>2021-09-25T18:00:32.971Z</time>
</trkpt>
<trkpt lat="31.8092100" lon="35.0408200">
<ele>478.110016</ele>
<time>2021-09-25T18:00:32.971Z</time>
</trkpt>
<trkpt lat="31.8092500" lon="35.0407200">
<ele>477.890015</ele>
<time>2021-09-25T18:00:32.971Z</time>
</trkpt>
<trkpt lat="31.8094500" lon="35.0405300">
<ele>477.660004</ele>
<time>2021-09-25T18:00:32.971Z</time>
</trkpt>
<trkpt lat="31.8094800" lon="35.0404500">
<ele>476.380005</ele>
<time>2021-09-25T18:00:32.971Z</time>
</trkpt>
<trkpt lat="31.8095000" lon="35.0401900">
<ele>473.300018</ele>
<time>2021-09-25T18:00:32.971Z</time>
</trkpt>
<trkpt lat="31.8095200" lon="35.0401200">
<ele>472.350006</ele>
<time>2021-09-25T18:00:32.971Z</time>
</trkpt>
<trkpt lat="31.8095700" lon="35.0400700">
<ele>470.910004</ele>
<time>2021-09-25T18:00:32.971Z</time>
</trkpt>
<trkpt lat="31.8097000" lon="35.0399800">
<ele>467.769989</ele>
<time>2021-09-25T18:00:32.971Z</time>
</trkpt>
<trkpt lat="31.8110800" lon="35.0393700">
<ele>448.350006</ele>
<time>2021-09-25T18:00:32.971Z</time>
</trkpt>
<trkpt lat="31.8111400" lon="35.0393100">
<ele>448.140015</ele>
<time>2021-09-25T18:00:32.971Z</time>
</trkpt>
<trkpt lat="31.8113800" lon="35.0389600">
<ele>451.339996</ele>
<time>2021-09-25T18:00:32.971Z</time>
</trkpt>
<trkpt lat="31.8115300" lon="35.0388000">
<ele>450.600006</ele>
<time>2021-09-25T18:00:32.971Z</time>
</trkpt>
<trkpt lat="31.8115100" lon="35.0386200">
<ele>446.500000</ele>
<time>2021-09-25T18:00:32.971Z</time>
</trkpt>
<trkpt lat="31.8115700" lon="35.0384000">
<ele>442.400024</ele>
<time>2021-09-25T18:00:32.971Z</time>
</trkpt>
<trkpt lat="31.8115700" lon="35.0382300">
<ele>438.980011</ele>
<time>2021-09-25T18:00:32.971Z</time>
</trkpt>
<trkpt lat="31.8115800" lon="35.0380600">
<ele>435.770020</ele>
<time>2021-09-25T18:00:32.971Z</time>
</trkpt>
<trkpt lat="31.8119000" lon="35.0363000">
<ele>417.119995</ele>
<time>2021-09-25T18:00:32.971Z</time>
</trkpt>
<trkpt lat="31.8121100" lon="35.0354000">
<ele>405.299988</ele>
<time>2021-09-25T18:00:32.971Z</time>
</trkpt>
<trkpt lat="31.8121700" lon="35.0351800">
<ele>400.250000</ele>
<time>2021-09-25T18:00:32.971Z</time>
</trkpt>
<trkpt lat="31.8123500" lon="35.0348100">
<ele>394.320007</ele>
<time>2021-09-25T18:00:32.971Z</time>
</trkpt>
<trkpt lat="31.8130600" lon="35.0341900">
<ele>381.339996</ele>
<time>2021-09-25T18:00:32.971Z</time>
</trkpt>
<trkpt lat="31.8131200" lon="35.0341200">
<ele>380.959991</ele>
<time>2021-09-25T18:00:32.971Z</time>
</trkpt>
<trkpt lat="31.8137300" lon="35.0334300">
<ele>374.009979</ele>
<time>2021-09-25T18:00:32.971Z</time>
</trkpt>
<trkpt lat="31.8139200" lon="35.0332600">
<ele>371.219971</ele>
<time>2021-09-25T18:00:32.971Z</time>
</trkpt>
<trkpt lat="31.8142100" lon="35.0331500">
<ele>365.209991</ele>
<time>2021-09-25T18:00:32.971Z</time>
</trkpt>
<trkpt lat="31.8143400" lon="35.0329900">
<ele>365.480011</ele>
<time>2021-09-25T18:00:32.971Z</time>
</trkpt>
<trkpt lat="31.8143900" lon="35.0329000">
<ele>364.549988</ele>
<time>2021-09-25T18:00:32.971Z</time>
</trkpt>
<trkpt lat="31.8144600" lon="35.0326900">
<ele>361.649994</ele>
<time>2021-09-25T18:00:32.971Z</time>
</trkpt>
<trkpt lat="31.8146900" lon="35.0322400">
<ele>362.650024</ele>
<time>2021-09-25T18:00:32.971Z</time>
</trkpt>
<trkpt lat="31.8147400" lon="35.0321000">
<ele>362.990021</ele>
<time>2021-09-25T18:00:32.971Z</time>
</trkpt>
<trkpt lat="31.8147600" lon="35.0319700">
<ele>362.390015</ele>
<time>2021-09-25T18:00:32.971Z</time>
</trkpt>
<trkpt lat="31.8147600" lon="35.0318300">
<ele>361.710022</ele>
<time>2021-09-25T18:00:32.971Z</time>
</trkpt>
<trkpt lat="31.8146500" lon="35.0315200">
<ele>362.910004</ele>
<time>2021-09-25T18:00:32.971Z</time>
</trkpt>
<trkpt lat="31.8146300" lon="35.0314100">
<ele>363.040009</ele>
<time>2021-09-25T18:00:32.971Z</time>
</trkpt>
<trkpt lat="31.8146400" lon="35.0313200">
<ele>362.529968</ele>
<time>2021-09-25T18:00:32.971Z</time>
</trkpt>
<trkpt lat="31.8146700" lon="35.0312000">
<ele>361.450012</ele>
<time>2021-09-25T18:00:32.971Z</time>
</trkpt>
<trkpt lat="31.8147500" lon="35.0310400">
<ele>359.079987</ele>
<time>2021-09-25T18:00:32.971Z</time>
</trkpt>
<trkpt lat="31.8148100" lon="35.0308500">
<ele>357.730011</ele>
<time>2021-09-25T18:00:32.971Z</time>
</trkpt>
<trkpt lat="31.8147900" lon="35.0305900">
<ele>359.149994</ele>
<time>2021-09-25T18:00:32.971Z</time>
</trkpt>
<trkpt lat="31.8147900" lon="35.0303300">
<ele>360.500000</ele>
<time>2021-09-25T18:00:32.971Z</time>
</trkpt>
<trkpt lat="31.8147700" lon="35.0302200">
<ele>361.549988</ele>
<time>2021-09-25T18:00:32.973Z</time>
</trkpt>
<trkpt lat="31.8147400" lon="35.0301500">
<ele>362.880005</ele>
<time>2021-09-25T18:00:32.973Z</time>
</trkpt>
<trkpt lat="31.8146700" lon="35.0300100">
<ele>366.230011</ele>
<time>2021-09-25T18:00:32.973Z</time>
</trkpt>
<trkpt lat="31.8145800" lon="35.0295200">
<ele>367.559998</ele>
<time>2021-09-25T18:00:32.973Z</time>
</trkpt>
<trkpt lat="31.8145100" lon="35.0293700">
<ele>366.949982</ele>
<time>2021-09-25T18:00:32.973Z</time>
</trkpt>
<trkpt lat="31.8143900" lon="35.0292300">
<ele>365.489990</ele>
<time>2021-09-25T18:00:32.973Z</time>
</trkpt>
<trkpt lat="31.8142400" lon="35.0290800">
<ele>363.989990</ele>
<time>2021-09-25T18:00:32.973Z</time>
</trkpt>
<trkpt lat="31.8141400" lon="35.0289500">
<ele>361.940002</ele>
<time>2021-09-25T18:00:32.973Z</time>
</trkpt>
<trkpt lat="31.8140000" lon="35.0288300">
<ele>358.220001</ele>
<time>2021-09-25T18:00:32.973Z</time>
</trkpt>
<trkpt lat="31.8141400" lon="35.0287700">
<ele>358.959991</ele>
<time>2021-09-25T18:00:32.973Z</time>
</trkpt>
<trkpt lat="31.8142300" lon="35.0287000">
<ele>358.519989</ele>
<time>2021-09-25T18:00:32.973Z</time>
</trkpt>
<trkpt lat="31.8143500" lon="35.0285600">
<ele>357.949982</ele>
<time>2021-09-25T18:00:32.973Z</time>
</trkpt>
<trkpt lat="31.8144300" lon="35.0284200">
<ele>358.100006</ele>
<time>2021-09-25T18:00:32.974Z</time>
</trkpt>
<trkpt lat="31.8145700" lon="35.0280900">
<ele>355.200012</ele>
<time>2021-09-25T18:00:32.974Z</time>
</trkpt>
<trkpt lat="31.8146300" lon="35.0279100">
<ele>353.079987</ele>
<time>2021-09-25T18:00:32.974Z</time>
</trkpt>
<trkpt lat="31.8146600" lon="35.0277200">
<ele>350.739990</ele>
<time>2021-09-25T18:00:32.974Z</time>
</trkpt>
<trkpt lat="31.8146900" lon="35.0276100">
<ele>349.680023</ele>
<time>2021-09-25T18:00:32.974Z</time>
</trkpt>
<trkpt lat="31.8146900" lon="35.0276100">
<ele>349.680023</ele>
<time>2021-09-25T18:00:32.974Z</time>
</trkpt>
<trkpt lat="31.8146900" lon="35.0276100">
<ele>349.680023</ele>
<time>2021-09-25T18:00:32.974Z</time>
</trkpt>
<trkpt lat="31.8147500" lon="35.0274100">
<ele>345.980011</ele>
<time>2021-09-25T18:00:32.974Z</time>
</trkpt>
<trkpt lat="31.8148900" lon="35.0271700">
<ele>339.740021</ele>
<time>2021-09-25T18:00:32.974Z</time>
</trkpt>
<trkpt lat="31.8150000" lon="35.0270600">
<ele>338.080017</ele>
<time>2021-09-25T18:00:32.974Z</time>
</trkpt>
<trkpt lat="31.8153700" lon="35.0267600">
<ele>337.339996</ele>
<time>2021-09-25T18:00:32.974Z</time>
</trkpt>
<trkpt lat="31.8154600" lon="35.0267000">
<ele>336.580017</ele>
<time>2021-09-25T18:00:32.974Z</time>
</trkpt>
<trkpt lat="31.8155800" lon="35.0266500">
<ele>336.260010</ele>
<time>2021-09-25T18:00:32.974Z</time>
</trkpt>
<trkpt lat="31.8157300" lon="35.0266400">
<ele>338.850006</ele>
<time>2021-09-25T18:00:32.974Z</time>
</trkpt>
<trkpt lat="31.8158500" lon="35.0266700">
<ele>340.929993</ele>
<time>2021-09-25T18:00:32.974Z</time>
</trkpt>
<trkpt lat="31.8160000" lon="35.0267400">
<ele>340.860016</ele>
<time>2021-09-25T18:00:32.974Z</time>
</trkpt>
<trkpt lat="31.8162300" lon="35.0268900">
<ele>340.430023</ele>
<time>2021-09-25T18:00:32.974Z</time>
</trkpt>
<trkpt lat="31.8164400" lon="35.0271200">
<ele>336.010010</ele>
<time>2021-09-25T18:00:32.974Z</time>
</trkpt>
<trkpt lat="31.8167000" lon="35.0275500">
<ele>327.709991</ele>
<time>2021-09-25T18:00:32.974Z</time>
</trkpt>
<trkpt lat="31.8167500" lon="35.0276900">
<ele>324.089996</ele>
<time>2021-09-25T18:00:32.974Z</time>
</trkpt>
<trkpt lat="31.8167600" lon="35.0279000">
<ele>321.369995</ele>
<time>2021-09-25T18:00:32.974Z</time>
</trkpt>
<trkpt lat="31.8167100" lon="35.0282700">
<ele>319.450012</ele>
<time>2021-09-25T18:00:32.974Z</time>
</trkpt>
<trkpt lat="31.8166100" lon="35.0286100">
<ele>319.000000</ele>
<time>2021-09-25T18:00:32.974Z</time>
</trkpt>
<trkpt lat="31.8164500" lon="35.0293800">
<ele>313.630005</ele>
<time>2021-09-25T18:00:32.974Z</time>
</trkpt>
<trkpt lat="31.8163900" lon="35.0296100">
<ele>312.410004</ele>
<time>2021-09-25T18:00:32.974Z</time>
</trkpt>
<trkpt lat="31.8162700" lon="35.0298600">
<ele>310.010010</ele>
<time>2021-09-25T18:00:32.974Z</time>
</trkpt>
<trkpt lat="31.8160400" lon="35.0301700">
<ele>307.550018</ele>
<time>2021-09-25T18:00:32.974Z</time>
</trkpt>
<trkpt lat="31.8160100" lon="35.0302400">
<ele>307.600006</ele>
<time>2021-09-25T18:00:32.974Z</time>
</trkpt>
<trkpt lat="31.8160000" lon="35.0303200">
<ele>307.959991</ele>
<time>2021-09-25T18:00:32.974Z</time>
</trkpt>
<trkpt lat="31.8160400" lon="35.0304000">
<ele>308.739990</ele>
<time>2021-09-25T18:00:32.974Z</time>
</trkpt>
<trkpt lat="31.8161700" lon="35.0304400">
<ele>309.720001</ele>
<time>2021-09-25T18:00:32.974Z</time>
</trkpt>
<trkpt lat="31.8162900" lon="35.0304100">
<ele>310.549988</ele>
<time>2021-09-25T18:00:32.974Z</time>
</trkpt>
<trkpt lat="31.8165800" lon="35.0303200">
<ele>313.580017</ele>
<time>2021-09-25T18:00:32.974Z</time>
</trkpt>
<trkpt lat="31.8166700" lon="35.0303100">
<ele>314.910004</ele>
<time>2021-09-25T18:00:32.974Z</time>
</trkpt>
<trkpt lat="31.8168800" lon="35.0303400">
<ele>309.369995</ele>
<time>2021-09-25T18:00:32.974Z</time>
</trkpt>
<trkpt lat="31.8170400" lon="35.0304000">
<ele>306.639984</ele>
<time>2021-09-25T18:00:32.974Z</time>
</trkpt>
<trkpt lat="31.8171600" lon="35.0305000">
<ele>305.049988</ele>
<time>2021-09-25T18:00:32.974Z</time>
</trkpt>
<trkpt lat="31.8172600" lon="35.0306500">
<ele>305.720001</ele>
<time>2021-09-25T18:00:32.974Z</time>
</trkpt>
<trkpt lat="31.8173300" lon="35.0307900">
<ele>307.619995</ele>
<time>2021-09-25T18:00:32.974Z</time>
</trkpt>
<trkpt lat="31.8173800" lon="35.0308200">
<ele>307.919983</ele>
<time>2021-09-25T18:00:32.974Z</time>
</trkpt>
<trkpt lat="31.8174400" lon="35.0308200">
<ele>307.959991</ele>
<time>2021-09-25T18:00:32.974Z</time>
</trkpt>
<trkpt lat="31.8174800" lon="35.0308000">
<ele>307.970001</ele>
<time>2021-09-25T18:00:32.975Z</time>
</trkpt>
<trkpt lat="31.8175100" lon="35.0307500">
<ele>308.269989</ele>
<time>2021-09-25T18:00:32.975Z</time>
</trkpt>
<trkpt lat="31.8174700" lon="35.0306900">
<ele>307.779999</ele>
<time>2021-09-25T18:00:32.975Z</time>
</trkpt>
<trkpt lat="31.8173100" lon="35.0300400">
<ele>301.429993</ele>
<time>2021-09-25T18:00:32.975Z</time>
</trkpt>
<trkpt lat="31.8172600" lon="35.0297500">
<ele>295.440002</ele>
<time>2021-09-25T18:00:32.975Z</time>
</trkpt>
<trkpt lat="31.8172600" lon="35.0296000">
<ele>294.510010</ele>
<time>2021-09-25T18:00:32.975Z</time>
</trkpt>
<trkpt lat="31.8173100" lon="35.0292900">
<ele>294.679993</ele>
<time>2021-09-25T18:00:32.975Z</time>
</trkpt>
<trkpt lat="31.8174400" lon="35.0288000">
<ele>294.140015</ele>
<time>2021-09-25T18:00:32.975Z</time>
</trkpt>
<trkpt lat="31.8175200" lon="35.0283900">
<ele>291.609985</ele>
<time>2021-09-25T18:00:32.975Z</time>
</trkpt>
<trkpt lat="31.8175300" lon="35.0281800">
<ele>291.300018</ele>
<time>2021-09-25T18:00:32.975Z</time>
</trkpt>
<trkpt lat="31.8175300" lon="35.0272500">
<ele>285.589996</ele>
<time>2021-09-25T18:00:32.975Z</time>
</trkpt>
<trkpt lat="31.8175900" lon="35.0268300">
<ele>283.970001</ele>
<time>2021-09-25T18:00:32.975Z</time>
</trkpt>
<trkpt lat="31.8176100" lon="35.0264500">
<ele>282.320007</ele>
<time>2021-09-25T18:00:32.975Z</time>
</trkpt>
<trkpt lat="31.8176700" lon="35.0262500">
<ele>281.220001</ele>
<time>2021-09-25T18:00:32.975Z</time>
</trkpt>
<trkpt lat="31.8177100" lon="35.0261800">
<ele>281.009979</ele>
<time>2021-09-25T18:00:32.975Z</time>
</trkpt>
<trkpt lat="31.8177000" lon="35.0260400">
<ele>280.070007</ele>
<time>2021-09-25T18:00:32.975Z</time>
</trkpt>
<trkpt lat="31.8172500" lon="35.0252300">
<ele>291.089996</ele>
<time>2021-09-25T18:00:32.975Z</time>
</trkpt>
<trkpt lat="31.8169300" lon="35.0248500">
<ele>295.630005</ele>
<time>2021-09-25T18:00:32.975Z</time>
</trkpt>
<trkpt lat="31.8168900" lon="35.0247300">
<ele>295.809998</ele>
<time>2021-09-25T18:00:32.975Z</time>
</trkpt>
<trkpt lat="31.8167900" lon="35.0245600">
<ele>293.429993</ele>
<time>2021-09-25T18:00:32.975Z</time>
</trkpt>
<trkpt lat="31.8164600" lon="35.0242200">
<ele>292.000000</ele>
<time>2021-09-25T18:00:32.975Z</time>
</trkpt>
</trkseg>
</trk>
</gpx>
